GFSGL_prec_cloud_003.txt.gz
Cloud_Cover
0 0 0 0 0 0 0 0 0 0 0 1 0 0 0 8 15 11 0 9 1 0 0 0 0 0 0 6 8 4 52 55 98 100 46 100 93 94 47 96 5 29 5
0 0 0 0 0 0 0 0 0 0 0 0 0 0 0 0 0 3 1 0 19 13 14 7 0 2 0 16 44 71 18 100 91 100 96 97 100 84 14 83 99 5 78
0 0 0 0 0 0 0 0 0 0 0 0 0 0 0 0 0 2 1 17 0 63 0 11 75 51 1 88 100 100 19 100 100 100 100 100 74 96 15 5 5 5 5
0 0 0 0 0 0 0 0 0 0 0 0 0 0 0 0 0 0 12 11 13 31 9 50 99 42 16 60 100 100 100 98 100 100 100 100 49 7 29 30 9 11 29
0 0 0 0 0 0 0 0 0 0 0 0 0 0 0 0 18 6 5 0 6 21 42 8 11 18 100 81 100 100 100 100 100 100 100 100 59 6 5 8 5 9 6
0 0 0 0 0 0 0 0 0 0 0 0 0 0 0 0 0 0 0 0 1 11 50 9 54 38 100 100 100 100 100 100 100 100 100 100 62 27 5 100 6 88 5
0 0 0 0 0 0 0 0 2 0 0 3 0 0 0 0 0 0 0 0 0 13 8 29 87 100 100 100 100 100 100 100 100 100 100 100 82 33 5 29 88 5 4
0 0 0 0 0 0 0 3 5 0 11 0 0 0 0 0 0 0 0 0 0 2 16 99 100 100 99 100 76 98 100 79 98 100 97 94 99 45 7 4 18 5 4
4 5 0 0 0 0 2 4 5 4 2 0 0 94 90 94 79 4 0 0 1 2 11 100 100 100 100 28 61 100 94 97 100 100 99 99 80 99 5 19 12 70 25
5 5 0 0 0 0 0 5 100 100 23 1 29 5 5 42 2 5 5 0 0 5 41 100 100 100 94 73 98 100 100 100 100 100 100 94 100 98 29 32 90 5 71
5 5 4 0 12 17 5 5 100 90 1 0 0 0 18 56 86 100 5 4 0 0 93 100 100 91 100 100 100 100 100 100 100 100 85 78 18 63 48 12 72 78 20
31 5 4 36 61 94 14 5 30 2 0 0 16 2 7 100 86 97 33 49 25 2 98 100 100 100 100 100 100 100 100 100 100 100 100 59 100 100 42 59 18 96 27
5 14 16 11 46 76 38 28 9 12 5 70 98 3 100 11 100 5 0 6 87 51 100 100 100 100 100 100 100 100 100 100 100 100 100 100 100 98 27 27 32 10 31
5 16 45 40 26 71 25 23 82 4 100 90 22 45 64 98 67 5 0 0 0 64 77 100 100 100 100 100 100 100 100 100 100 100 100 100 100 100 100 100 53 100 100
4 5 5 14 61 65 1 1 0 1 19 5 5 8 33 40 9 38 48 1 0 91 82 100 100 100 100 100 100 100 100 100 100 100 100 100 100 100 100 100 87 92 100
17 55 34 37 17 2 32 0 71 44 100 100 100 52 100 90 12 32 100 100 97 99 96 100 100 100 100 100 100 100 100 100 100 100 100 100 100 100 100 100 100 100 100
8 10 9 0 12 84 0 22 76 32 5 5 67 100 100 100 10 1 0 2 6 90 94 100 100 100 100 100 100 100 100 100 100 100 100 100 100 100 100 100 100 100 100
2 9 0 5 2 9 79 13 25 84 66 78 93 100 100 100 96 34 1 7 64 100 100 100 100 100 100 100 100 100 100 100 100 100 100 100 100 100 100 100 100 100 100
0 50 49 0 1 7 38 5 5 5 50 100 99 100 100 100 100 90 8 13 66 100 100 99 100 100 100 100 100 100 100 100 100 100 100 100 100 100 100 100 100 100 100
1 20 5 7 61 16 5 8 83 87 97 99 100 100 100 100 100 100 100 100 70 84 90 79 100 100 100 100 100 100 100 100 100 100 100 100 100 100 100 100 100 100 100
56 14 32 49 5 4 5 6 43 93 68 57 31 100 100 100 100 100 100 91 40 92 100 72 100 87 100 100 100 100 100 100 100 100 100 100 100 100 100 100 100 100 100
58 60 46 16 76 100 82 31 65 54 66 61 52 78 100 100 100 100 98 79 64 52 59 12 10 99 86 100 100 82 100 100 100 100 100 100 100 100 100 100 100 100 100
6 100 100 99 100 79 17 19 71 96 26 7 19 14 99 100 100 100 100 84 67 19 3 0 4 7 15 67 56 100 100 100 100 100 100 100 100 100 100 100 100 100 100
57 82 95 100 72 59 48 90 89 16 5 5 2 0 14 91 100 100 100 27 7 6 4 0 0 1 4 5 62 91 100 100 100 100 100 100 100 100 100 100 100 100 100
20 80 59 74 100 100 96 61 9 5 15 52 6 4 5 5 5 82 100 86 23 5 5 2 0 0 0 4 5 41 6 10 91 100 62 99 100 100 100 100 100 100 100
96 65 42 47 55 31 5 7 29 24 11 7 9 3 0 0 0 0 1 11 47 34 3 0 0 0 0 0 3 4 7 68 24 41 100 51 98 93 100 100 100 100 100

GFSGL_prec_cloud_006.txt.gz
Cloud_Cover
0 1 0 0 0 0 0 0 0 0 0 0 0 0 0 0 0 0 0 0 0 3 0 0 0 0 0 0 0 0 40 40 100 100 53 46 40 92 84 77 94 100 100
0 3 15 0 0 0 0 0 0 0 0 0 0 0 0 0 0 0 0 0 0 0 0 0 0 0 0 0 0 5 32 67 100 100 8 59 5 24 33 63 90 99 94
1 40 100 1 0 0 0 0 0 0 0 0 0 0 0 0 0 0 0 0 0 0 0 0 0 0 0 0 0 0 22 42 100 100 99 32 9 35 5 5 75 6 100
3 63 36 5 0 0 0 0 0 0 0 0 0 0 0 0 0 0 9 0 0 0 0 0 0 3 2 0 0 5 6 41 100 100 100 100 79 12 5 5 5 5 21
16 87 5 5 0 0 0 0 0 0 0 0 0 0 0 0 0 62 86 20 0 0 0 0 1 16 12 0 1 15 13 6 100 100 100 100 54 83 39 74 44 5 17
9 5 58 5 0 0 3 5 5 0 0 0 0 2 5 5 0 1 0 0 0 0 0 0 14 100 90 5 5 95 60 89 97 100 100 100 100 52 97 29 43 5 19
61 63 69 4 1 5 5 5 5 4 0 0 0 3 29 4 2 0 0 0 0 0 0 0 52 100 57 5 100 100 93 88 100 90 100 100 100 100 99 94 95 16 35
66 90 5 0 5 5 5 5 5 0 0 0 2 5 5 4 0 0 5 24 6 2 1 0 40 100 72 50 100 100 100 100 100 100 100 100 100 100 92 100 100 99 47
5 5 3 0 5 26 8 5 5 5 5 1 3 0 4 2 0 2 16 38 99 92 3 4 72 92 94 18 83 88 100 100 100 100 100 100 100 100 100 100 94 96 78
5 0 0 5 9 14 5 5 8 5 5 0 0 55 88 20 27 6 6 71 100 100 9 4 5 88 85 90 100 100 100 100 100 100 100 100 100 100 100 100 100 100 99
0 0 5 19 35 88 92 5 100 6 14 0 1 0 16 51 49 5 18 90 100 71 16 5 4 89 100 100 100 100 100 100 100 100 100 100 100 100 87 100 100 100 88
0 5 5 5 100 99 100 60 2 63 12 4 0 0 32 17 9 5 84 71 54 24 0 0 51 100 100 100 100 100 100 100 100 100 100 100 100 100 75 100 100 100 91
28 69 4 0 25 10 36 76 72 5 98 6 0 11 88 32 5 91 97 56 1 3 0 0 33 100 100 100 100 100 100 100 100 100 100 100 100 100 100 100 100 100 93
100 100 99 16 93 5 38 95 100 62 0 1 0 44 2 5 5 79 35 44 5 0 0 0 95 100 100 100 100 100 100 100 100 100 100 100 100 100 100 100 100 100 100
100 100 100 100 33 11 64 100 100 53 19 0 0 1 1 5 7 20 51 7 2 2 34 4 100 100 100 100 100 100 100 100 100 100 100 100 100 100 100 100 100 100 100
98 100 77 24 5 89 10 29 88 86 100 100 38 34 10 2 8 18 100 91 40 62 4 30 100 100 100 100 100 100 100 100 100 100 100 100 100 100 100 100 100 100 100
40 2 5 3 22 0 2 0 1 39 6 0 1 5 5 51 5 64 100 100 23 0 16 6 83 100 100 100 100 100 100 100 100 100 100 100 100 100 100 100 100 100 100
22 2 0 0 2 0 0 0 2 12 48 68 44 15 26 6 74 63 100 87 54 20 0 4 66 100 100 100 100 100 100 100 100 100 100 100 100 100 100 100 100 100 100
0 0 0 1 24 3 0 0 0 0 8 60 52 16 6 39 98 67 100 100 99 5 0 40 94 100 100 100 100 100 100 100 100 100 100 100 100 100 100 100 100 100 100
1 4 0 59 56 1 4 3 0 11 7 40 38 35 23 62 86 100 98 100 100 89 18 52 73 81 100 100 100 100 100 100 100 100 100 100 100 100 100 100 100 100 100
1 100 3 0 32 4 3 5 5 5 65 100 58 17 56 79 37 94 100 100 100 100 100 5 0 52 60 100 83 100 100 100 100 100 100 100 100 100 100 100 100 100 100
25 100 54 10 65 81 43 81 10 20 29 68 24 5 96 43 5 58 100 100 98 100 100 31 2 0 10 44 100 100 100 100 100 100 100 100 100 100 100 100 100 100 100
5 81 18 88 84 80 100 80 53 57 41 94 56 98 66 18 5 0 8 100 100 95 99 100 7 0 1 13 9 76 100 100 100 100 100 100 100 100 100 100 100 100 100
71 5 7 44 53 75 32 43 86 100 99 74 40 5 13 17 5 3 0 26 100 100 100 74 8 4 0 1 42 5 100 90 100 100 100 100 100 100 100 100 100 100 100
36 80 96 45 80 31 5 3 7 6 5 5 5 5 5 5 28 5 5 1 0 5 20 95 68 4 0 0 0 10 34 84 7 99 100 100 100 100 100 100 100 100 100
51 78 58 43 36 7 5 4 5 5 5 5 5 5 2 1 2 0 0 0 0 0 0 1 3 5 4 0 0 4 5 5 77 5 59 100 100 100 100 100 100 100 100

GFSGL_prec_cloud_009.txt.gz
Cloud_Cover
5 1 0 4 0 5 0 0 0 0 0 0 0 0 0 0 0 0 0 0 0 0 0 0 0 0 0 0 0 0 6 32 99 12 6 0 1 96 76 100 100 100 100
2 5 4 2 1 5 5 4 0 0 0 0 5 5 0 0 0 0 0 0 0 0 0 2 0 0 0 0 0 0 10 16 84 20 3 0 3 45 3 100 100 98 96
5 5 5 5 5 5 4 5 0 0 0 0 3 5 5 0 0 0 0 0 0 0 0 0 0 0 0 0 0 12 23 16 39 76 4 13 0 96 46 73 100 100 78
4 61 5 4 5 4 32 0 0 0 0 0 5 5 8 0 0 0 0 16 52 36 0 0 0 0 0 0 0 0 18 45 58 48 32 57 79 70 72 87 89 72 7
97 72 5 99 47 2 4 2 0 0 0 0 5 38 5 0 0 0 0 40 67 6 0 0 0 0 0 0 8 5 55 83 97 98 46 99 100 100 100 61 69 86 4
100 99 94 100 65 5 5 5 0 0 0 0 5 5 0 0 0 0 0 0 0 0 2 0 0 0 0 1 6 5 5 61 71 98 100 100 100 100 96 100 100 100 91
19 64 100 92 65 72 16 4 4 0 0 4 0 0 0 0 1 5 0 0 0 6 8 5 5 5 4 3 3 27 5 2 65 64 99 96 100 100 100 100 100 100 98
93 87 36 77 72 61 9 0 0 1 5 2 1 0 0 4 2 3 0 0 0 4 14 11 16 94 25 48 5 5 5 42 64 78 100 100 98 99 100 100 100 98 30
5 42 50 100 91 52 30 4 4 5 1 0 2 0 14 98 5 5 5 5 5 5 5 65 100 100 57 3 4 72 32 94 100 100 100 100 100 100 100 100 100 100 100
100 56 100 100 100 100 72 64 5 5 3 0 5 2 27 2 0 4 3 4 0 5 10 5 59 66 0 0 7 49 100 100 100 100 96 100 100 100 100 100 100 100 100
100 100 97 100 100 58 87 24 5 95 42 6 98 21 31 3 2 3 5 0 5 15 73 5 6 2 0 4 50 99 100 100 100 100 100 100 100 100 100 100 100 100 100
100 70 100 100 100 99 68 85 100 100 100 98 100 100 2 0 9 1 0 91 68 21 13 2 11 100 25 20 80 100 100 100 100 100 100 100 100 100 100 100 100 100 100
100 100 100 100 100 95 100 100 100 100 66 93 30 75 95 5 2 0 0 13 85 71 0 4 88 37 12 22 100 100 100 100 100 100 100 100 100 100 100 100 100 100 100
100 100 100 100 100 100 100 100 100 100 38 18 26 50 1 23 0 1 4 5 5 4 5 10 88 96 7 78 100 100 100 100 100 100 100 100 100 100 100 100 100 100 100
100 100 100 100 100 96 100 100 89 52 39 1 0 0 0 0 0 12 42 8 5 15 99 17 64 32 21 17 100 100 100 100 100 100 100 100 100 100 100 100 100 100 100
100 100 100 100 100 100 100 57 94 86 100 64 33 0 0 0 1 5 24 46 21 23 100 96 1 0 37 93 100 100 100 100 100 100 100 100 100 100 100 100 100 100 100
99 58 16 72 43 5 1 0 41 100 12 0 0 0 0 0 0 6 28 52 69 98 63 6 2 0 100 89 100 100 100 100 100 100 100 100 100 100 100 100 100 100 100
81 66 6 0 1 22 8 11 22 12 14 11 46 14 7 4 3 86 18 5 5 88 95 90 14 19 94 77 100 100 100 100 100 100 100 100 100 100 100 100 100 100 100
11 5 30 60 98 88 100 11 0 2 7 10 1 14 5 4 4 26 98 57 9 88 100 100 56 7 48 100 100 100 100 100 100 100 100 100 100 100 100 100 100 100 100
100 100 75 33 56 100 6 8 1 0 0 4 2 87 73 5 6 5 98 80 96 98 100 95 100 26 2 100 100 100 100 100 100 100 100 100 100 100 100 100 100 100 100
100 100 78 97 85 34 17 5 5 5 5 5 67 28 56 5 5 5 5 6 23 47 98 100 100 100 100 24 100 100 88 100 100 100 100 100 100 100 100 100 100 100 100
100 98 89 65 99 80 18 8 7 3 3 10 5 1 1 5 5 5 82 100 82 95 87 8 100 100 90 94 61 89 83 100 100 100 100 100 100 100 100 100 100 100 100
100 95 46 33 100 60 97 100 96 62 99 35 5 5 5 5 5 5 5 17 78 6 0 0 42 100 38 84 5 24 86 84 100 100 100 100 100 100 100 100 100 100 100
100 100 100 100 19 74 94 96 8 72 100 77 5 5 5 4 2 4 5 5 5 5 5 4 0 5 11 86 5 5 22 5 87 86 100 100 100 100 100 100 100 100 100
96 21 6 14 7 4 5 0 0 4 5 5 1 2 2 3 5 5 5 1 0 4 5 5 2 0 0 5 5 4 5 5 13 41 89 100 100 100 100 100 100 100 100
10 100 100 100 100 85 6 5 5 2 5 5 5 5 5 5 5 0 0 0 0 0 0 0 0 0 0 0 0 2 5 5 3 44 5 59 98 100 100 100 100 100 100

GFSGL_prec_cloud_012.txt.gz
Cloud_Cover
5 91 84 5 5 6 5 5 5 12 5 5 5 5 4 0 0 0 0 0 0 0 0 0 0 0 0 0 0 0 0 44 40 1 0 0 0 0 0 0 0 4 1
1 25 8 5 100 97 68 5 21 100 58 5 24 47 2 0 0 0 0 0 0 0 0 0 0 0 0 0 6 0 11 13 57 69 52 4 0 0 0 0 4 1 27
20 72 84 100 100 100 100 100 100 100 100 63 98 5 2 0 0 0 0 0 0 0 0 0 0 0 0 1 2 9 15 10 36 99 100 61 11 0 0 0 0 0 3
5 67 95 89 100 100 100 94 100 100 100 100 5 5 36 1 0 0 0 1 0 4 8 0 0 0 0 0 0 0 2 18 40 100 100 100 82 0 0 17 31 0 20
5 62 96 100 100 100 100 100 100 100 100 19 8 5 33 2 1 0 0 0 0 0 0 0 0 0 0 0 2 0 15 29 67 99 99 79 85 40 44 12 58 82 30
0 78 100 100 100 100 100 100 100 100 100 100 89 13 49 34 3 0 0 0 0 0 0 0 4 5 0 0 0 3 5 29 35 53 67 54 80 60 72 100 94 100 100
100 100 100 100 100 100 100 100 100 100 100 100 100 60 13 28 0 1 11 8 5 1 0 0 2 5 5 0 24 98 37 10 3 5 33 12 98 99 67 100 100 100 100
51 56 72 100 100 100 100 100 100 100 100 100 91 100 85 92 5 2 73 18 5 4 0 4 5 5 3 5 2 73 26 0 0 6 19 77 100 100 100 100 100 100 100
6 51 90 93 100 100 100 100 100 100 37 94 100 100 99 60 46 98 61 5 5 5 0 5 5 4 5 1 1 0 0 2 5 86 96 99 100 100 100 100 100 100 100
0 31 100 100 100 100 100 100 100 100 100 100 100 100 100 98 100 100 79 41 2 0 5 5 5 5 4 0 0 29 100 99 100 100 100 100 100 100 100 100 100 100 100
95 100 100 100 100 99 100 99 89 99 100 95 100 100 100 100 100 100 33 0 0 13 5 5 9 5 3 1 27 23 91 95 100 100 100 100 100 100 100 100 100 100 100
99 100 100 100 100 100 97 98 97 100 100 100 100 100 100 100 100 99 4 91 73 2 5 6 5 0 0 25 5 0 15 98 100 100 100 100 100 100 100 100 100 100 100
96 100 100 100 100 100 100 100 100 100 100 100 100 100 100 21 10 4 0 0 2 0 0 5 1 0 5 56 0 0 92 100 100 100 100 100 100 100 100 100 100 100 100
100 100 100 100 100 100 100 100 100 100 100 100 100 100 100 8 0 12 0 0 5 5 5 5 4 13 97 19 2 12 100 100 100 100 100 100 100 100 100 100 100 100 100
88 100 100 100 100 100 100 100 100 100 100 100 100 100 98 4 1 39 1 4 0 25 31 6 20 46 41 4 2 72 100 100 100 100 100 100 100 100 100 100 100 100 100
100 100 100 100 100 100 100 100 100 100 100 100 100 90 5 0 0 0 0 6 37 38 16 5 9 5 4 2 0 82 100 100 99 100 100 100 100 100 100 100 100 100 100
100 100 93 100 100 100 100 100 100 100 100 69 0 0 3 0 0 1 5 6 45 38 5 10 9 32 5 4 0 83 100 100 100 100 100 100 100 100 100 100 100 100 100
100 100 100 100 99 87 98 25 25 29 8 0 73 25 21 0 2 5 5 4 90 49 12 5 16 100 39 5 0 56 100 100 100 100 100 100 100 100 100 100 100 100 100
96 95 100 100 99 83 31 34 25 17 17 7 2 13 4 4 5 2 5 57 98 27 77 84 33 98 91 23 3 16 100 100 100 100 100 100 100 100 100 100 100 100 100
81 100 99 88 87 97 18 5 6 15 28 18 13 5 14 5 0 0 0 1 7 8 12 64 66 76 78 61 7 14 100 100 100 100 100 100 100 100 100 100 100 100 100
98 94 100 100 33 72 88 100 46 66 82 54 11 5 5 1 0 0 0 0 10 4 5 5 2 5 8 5 14 5 78 100 100 100 100 100 100 100 100 100 100 100 100
22 69 100 100 100 100 100 100 100 100 100 74 39 35 11 0 0 0 0 100 100 38 0 0 0 0 4 5 5 5 35 92 100 100 100 100 100 100 100 100 100 100 100
96 100 100 100 100 100 100 100 100 97 82 97 100 100 51 5 0 0 0 58 18 3 0 5 5 4 0 0 0 5 5 16 90 99 100 100 100 100 100 100 100 100 100
46 74 63 100 100 80 72 90 100 67 6 26 84 72 17 1 3 0 0 0 0 2 5 5 4 1 0 0 0 0 2 5 18 81 80 100 100 100 100 100 100 100 100
44 42 93 81 94 88 86 6 5 5 5 4 4 3 4 3 1 0 0 0 0 0 0 0 0 0 0 3 0 0 0 5 4 35 5 91 100 100 100 100 100 100 100
100 91 100 95 100 100 100 97 18 5 5 2 0 2 5 5 4 0 0 0 0 0 0 0 0 0 0 0 0 0 4 4 3 2 5 5 97 100 100 100 100 100 100

GFSGL_prec_cloud_015.txt.gz
Cloud_Cover
0 34 79 35 82 95 18 100 100 100 100 100 13 5 5 54 75 5 5 9 5 1 0 0 0 5 9 16 11 4 1 29 77 0 0 0 0 0 0 0 0 0 0
17 100 15 5 5 16 88 100 100 100 100 100 9 8 93 77 27 15 99 41 33 0 0 0 0 0 2 4 22 12 13 10 42 21 0 0 0 0 0 0 0 0 0
63 2 2 0 8 80 100 100 100 100 100 88 5 98 100 100 100 100 36 90 5 3 0 5 0 0 0 18 11 19 17 6 32 77 84 84 91 5 0 0 0 0 0
88 9 0 0 52 100 100 100 100 100 42 73 10 93 100 100 100 100 48 100 6 15 0 4 5 0 0 0 7 4 5 24 30 85 98 54 47 0 0 0 8 0 0
9 43 0 99 100 100 100 100 100 80 100 100 94 84 100 100 100 97 64 97 5 98 1 92 6 0 0 1 13 6 18 28 47 97 100 35 45 0 0 0 0 0 15
99 86 100 100 100 100 100 100 100 100 100 100 100 100 100 100 100 100 100 14 100 13 3 86 5 0 0 0 5 5 6 14 27 59 70 73 7 0 0 2 2 71 99
1 86 100 100 100 100 100 100 100 99 77 100 98 95 73 100 100 100 99 88 42 14 98 71 5 0 0 2 5 5 4 0 2 21 35 12 24 5 28 5 11 94 100
0 8 87 100 100 100 100 100 100 54 99 100 100 96 100 100 100 100 97 97 97 64 92 74 3 1 2 5 5 5 4 0 0 9 12 1 4 72 86 40 100 100 100
0 0 2 3 35 95 100 81 100 80 100 100 50 98 100 100 100 100 97 100 100 100 36 1 3 5 5 5 5 1 1 0 0 13 62 8 99 59 92 100 100 100 100
0 2 16 100 100 100 100 100 100 83 100 100 100 100 100 100 100 100 95 100 100 90 5 5 5 5 5 5 4 27 96 9 35 39 100 26 91 100 98 100 100 100 100
0 0 3 57 100 100 95 97 100 100 100 100 100 100 100 100 100 100 100 100 100 100 100 5 5 4 5 5 19 8 23 15 53 84 100 100 100 100 100 100 100 100 100
0 0 18 20 93 99 100 37 99 100 100 100 100 100 100 100 99 100 100 100 100 100 9 25 4 0 1 0 0 19 0 2 65 100 100 100 100 100 100 100 100 100 100
1 5 84 100 100 100 100 100 100 100 100 100 100 100 100 100 100 100 100 100 100 100 94 1 5 5 0 9 95 85 2 19 100 99 100 100 100 100 100 99 100 100 100
66 100 83 93 100 98 100 100 100 100 100 100 100 100 100 100 100 100 100 100 100 95 3 0 5 5 16 22 75 4 16 95 91 100 100 100 100 100 100 100 100 100 100
5 5 2 18 59 86 94 100 70 96 100 100 100 100 100 100 100 100 100 100 96 35 45 6 5 22 74 62 22 12 34 45 45 100 100 100 100 100 100 100 100 100 100
72 73 20 6 95 93 100 100 100 100 100 100 100 100 100 100 100 100 100 95 92 100 15 4 5 7 85 57 5 6 10 68 94 100 100 100 100 100 100 100 100 100 100
37 28 52 100 100 100 100 28 34 77 100 100 100 100 100 100 100 98 2 1 0 7 1 5 17 5 5 5 5 12 9 2 100 100 100 100 100 100 100 100 100 100 100
100 100 100 97 100 98 50 29 88 100 100 100 100 97 98 89 7 2 0 0 3 15 8 21 87 6 5 7 69 35 8 3 87 100 100 100 100 100 100 100 100 100 100
100 95 78 56 100 71 68 88 57 83 96 46 6 23 4 3 0 3 3 58 100 8 7 22 26 5 5 11 38 29 16 7 34 100 100 100 100 100 100 100 100 100 100
100 100 88 97 100 40 27 85 100 100 100 83 20 60 13 6 7 27 96 100 18 0 0 7 12 4 0 2 5 5 5 39 7 100 100 100 100 100 100 100 100 100 100
100 100 100 100 100 100 100 100 100 100 100 100 100 100 100 100 92 91 69 5 1 17 12 3 0 0 0 0 0 0 5 5 5 87 100 100 100 100 100 100 99 100 100
100 100 100 92 99 100 100 100 89 93 100 100 100 100 100 100 100 100 90 2 4 93 0 0 0 0 0 0 0 0 0 4 5 75 100 100 100 100 100 100 100 100 100
57 76 76 81 52 59 69 61 100 100 100 92 100 100 100 80 48 20 0 0 0 0 0 1 0 0 0 0 0 2 5 1 5 5 100 100 100 100 100 100 100 100 100
66 61 54 17 15 96 98 100 41 62 40 43 39 10 42 62 5 0 0 0 0 0 0 0 0 0 0 0 0 0 0 1 3 0 36 62 100 100 100 100 100 100 100
10 14 36 100 100 95 24 5 5 84 68 93 18 5 5 0 4 5 0 0 0 0 0 0 0 0 0 0 0 0 0 5 0 0 0 89 100 100 100 100 100 100 100
100 97 72 80 74 65 100 78 98 73 38 28 5 5 0 4 5 4 0 0 0 0 0 0 0 0 0 0 0 0 2 4 0 0 0 1 78 100 100 100 100 100 100

GFSGL_prec_cloud_021.txt.gz
Cloud_Cover
0 0 0 50 19 65 9 18 100 100 100 100 81 100 100 88 5 8 100 97 59 100 100 100 100 100 80 79 100 13 17 28 0 0 19 16 0 5 4 3 0 0 0
0 0 20 100 27 11 100 100 100 100 100 100 100 100 100 57 18 78 100 57 99 100 100 100 100 100 76 31 6 6 5 6 14 4 7 27 5 6 23 12 0 0 0
0 0 46 94 57 60 21 100 100 100 100 100 100 100 100 100 100 100 100 100 100 100 100 100 100 99 5 5 18 71 30 6 56 100 97 99 64 1 0 0 0 0 0
3 5 17 0 5 5 17 72 100 100 100 100 100 100 100 100 100 100 100 100 100 100 100 100 100 27 22 3 5 48 38 90 97 100 93 80 44 22 29 19 13 12 15
0 15 16 0 0 1 2 2 100 100 100 100 100 100 100 100 100 100 100 100 100 100 95 63 14 5 5 21 100 100 100 100 100 100 54 38 1 19 4 2 58 22 2
0 1 15 31 5 5 5 2 99 100 100 100 100 100 100 100 100 100 100 100 100 6 6 14 5 6 1 27 100 100 100 100 100 100 99 35 63 37 19 74 71 1 0
4 18 55 30 6 74 68 5 4 6 79 99 100 100 100 100 100 100 100 100 100 91 64 100 6 25 92 100 100 100 100 100 100 58 97 83 69 26 90 62 66 44 24
7 41 58 52 43 35 6 0 11 30 73 6 78 100 100 100 100 100 100 100 100 100 100 96 100 100 100 100 100 100 100 100 93 7 18 19 9 1 26 94 98 98 73
16 38 48 55 90 71 5 6 45 16 78 99 100 100 75 97 100 99 100 100 100 100 100 100 100 100 100 100 100 100 100 100 35 5 5 1 0 0 6 100 100 95 51
1 12 67 62 93 88 47 82 96 47 89 100 100 100 99 100 100 100 100 100 100 100 100 100 100 100 100 100 100 100 100 98 89 10 4 0 20 23 10 98 100 100 100
10 96 100 100 97 68 100 100 94 80 87 100 100 100 78 91 84 100 99 100 100 100 100 88 80 100 100 42 13 6 16 45 76 2 0 2 29 32 31 45 49 95 96
90 93 96 91 97 98 100 100 100 88 91 44 99 52 100 77 78 92 100 100 100 86 100 4 8 6 30 6 24 98 51 4 2 0 1 3 9 0 2 5 10 100 79
100 92 70 100 100 99 99 100 100 100 98 98 68 100 100 91 86 99 100 96 98 60 43 0 0 9 62 5 4 0 4 2 0 0 11 0 0 0 0 5 98 100 100
70 98 100 100 100 100 100 100 100 97 72 14 64 100 100 99 100 89 29 93 15 5 5 1 27 99 100 100 44 4 5 5 3 0 0 0 0 0 3 12 100 100 100
100 97 100 100 100 90 87 100 100 92 40 95 100 98 100 100 90 5 42 5 9 32 9 76 99 99 72 87 31 5 5 4 4 0 0 5 3 0 10 100 100 100 100
66 84 100 100 54 80 60 83 100 100 100 100 100 99 100 44 6 17 32 100 100 94 86 71 99 98 100 100 58 23 5 5 0 2 5 33 2 1 13 95 100 100 100
32 4 18 66 74 22 19 43 8 42 55 68 37 8 99 26 47 9 99 97 100 95 79 100 100 100 100 97 44 50 8 5 5 5 5 5 5 21 100 100 100 100 98
44 70 18 81 78 9 26 37 21 26 100 100 100 100 79 39 100 100 56 49 84 99 99 100 100 100 100 93 64 63 5 5 4 0 0 4 5 37 100 100 100 100 100
100 92 35 4 13 97 99 100 100 92 100 100 56 28 15 61 32 5 5 5 48 92 74 98 100 100 100 100 98 7 2 0 0 0 0 0 0 28 100 100 100 100 100
100 96 100 100 100 99 91 100 97 35 5 9 32 70 18 5 5 2 1 3 3 3 5 4 88 95 100 37 3 0 0 0 0 0 0 0 0 45 100 100 100 100 100
100 100 100 100 100 100 98 5 3 10 4 5 5 5 5 5 0 2 1 0 0 0 1 0 5 7 5 0 0 0 0 0 0 0 0 0 0 13 100 100 100 100 100
100 100 73 100 55 5 59 97 98 71 5 6 5 13 9 5 4 3 0 0 0 0 0 7 0 0 0 0 0 0 0 0 0 0 0 0 0 0 100 100 100 100 100
23 1 3 2 4 30 3 35 30 67 100 61 45 33 2 5 0 2 0 0 0 0 0 0 0 0 0 0 0 0 0 0 0 0 0 0 0 0 84 100 100 100 100
0 0 0 0 5 5 3 4 6 34 51 36 100 5 5 5 0 0 0 0 0 0 0 0 0 0 0 0 0 0 0 0 0 0 0 0 0 0 3 88 100 98 64
0 0 0 0 0 3 21 7 5 27 22 86 5 5 5 5 5 0 0 0 0 0 0 0 0 0 0 0 0 0 0 0 1 43 0 0 0 0 0 38 100 100 66
0 0 0 0 3 9 4 5 6 17 5 5 5 5 5 5 5 2 0 0 0 0 0 0 0 0 0 0 0 0 0 2 0 12 0 0 0 0 0 0 59 100 72

GFSGL_prec_cloud_024.txt.gz
Cloud_Cover
0 0 0 0 0 5 37 51 64 6 14 100 100 100 100 100 97 100 100 58 68 86 100 100 100 100 100 100 100 100 96 97 74 2 75 62 15 15 3 5 0 0 0
0 0 0 0 0 0 5 78 4 96 80 44 100 100 100 100 100 100 99 100 90 100 100 100 100 100 100 100 100 61 16 9 17 17 5 8 42 96 13 41 8 0 0
0 0 0 0 0 5 0 0 0 42 4 93 100 100 100 100 100 100 100 100 100 100 100 100 100 100 100 100 74 2 42 36 38 47 98 84 90 100 86 65 5 0 0
0 0 0 5 5 5 0 0 0 4 3 9 100 100 100 100 100 100 100 100 100 100 100 100 100 96 43 8 0 0 20 35 82 100 100 100 100 100 100 100 100 38 13
0 0 0 33 54 2 0 0 5 9 8 100 100 100 100 100 100 100 100 100 100 100 100 100 70 24 96 72 6 21 100 100 100 100 100 100 100 100 100 74 7 35 0
0 0 1 46 61 2 18 0 0 5 4 5 25 86 100 100 100 100 100 100 100 100 100 100 97 99 100 100 100 100 100 100 100 100 100 100 100 96 1 20 15 24 0
0 0 2 31 53 55 75 48 16 5 1 5 14 4 64 83 100 100 100 100 100 100 100 100 100 100 100 100 100 100 100 100 100 100 100 31 2 18 9 56 66 23 0
0 0 1 34 25 50 94 99 44 1 13 83 97 76 74 21 24 100 100 100 100 100 100 100 100 100 100 100 100 99 86 59 59 19 36 16 11 4 17 6 6 61 76
0 0 1 14 29 90 100 100 100 96 42 95 100 98 89 43 50 98 100 100 100 100 100 100 100 100 100 100 100 100 5 5 0 5 5 0 0 0 0 55 32 100 77
4 0 0 2 40 78 82 100 100 100 100 100 96 100 43 98 45 54 100 100 100 100 98 100 100 100 100 100 100 94 75 5 4 0 2 0 0 4 25 70 93 55 68
74 9 2 8 16 49 100 100 97 95 100 100 100 57 34 86 65 54 58 76 97 100 66 100 100 100 69 54 17 5 5 15 5 5 4 4 0 0 62 92 53 13 22
87 8 24 38 88 100 100 100 100 100 100 100 99 35 73 100 30 100 99 100 98 100 100 19 100 79 5 5 11 5 5 5 5 16 5 5 3 0 0 0 0 0 1
8 16 78 99 100 100 100 100 100 100 100 100 78 95 100 100 100 100 100 100 94 100 30 34 6 8 2 65 1 5 6 6 44 6 5 5 5 5 0 0 0 0 19
43 100 98 100 92 96 100 100 100 100 100 100 84 86 64 97 100 100 100 60 100 87 74 99 100 36 4 52 6 89 84 73 100 75 77 60 5 0 0 0 0 1 97
96 100 100 100 100 100 100 100 99 99 78 93 68 38 99 100 100 99 100 100 100 99 100 33 56 25 27 73 95 96 99 98 100 97 8 5 5 0 0 0 0 41 100
99 100 98 92 96 70 7 3 71 39 70 100 54 56 90 92 100 100 79 91 100 90 18 21 37 72 71 100 99 99 100 100 100 99 24 5 0 0 0 0 0 58 100
100 100 96 5 9 4 0 3 6 100 99 5 88 99 100 93 94 6 39 90 100 80 5 5 56 70 95 81 100 100 100 100 100 100 100 40 0 0 0 0 30 100 100
91 62 81 13 6 76 100 100 100 90 5 27 73 43 27 5 5 8 52 68 10 30 5 4 0 11 65 32 5 10 100 100 100 100 64 1 0 0 0 0 76 100 100
53 99 95 98 100 100 100 100 80 28 55 100 80 12 20 0 0 2 8 5 2 0 2 7 5 1 0 0 11 75 70 70 65 23 0 0 0 0 0 0 100 100 100
30 22 26 43 13 5 8 60 68 20 4 5 6 10 16 69 88 5 5 1 5 6 9 2 2 0 0 0 0 2 10 7 2 0 0 0 0 0 0 14 100 100 99
6 20 60 74 74 8 10 0 5 18 38 27 43 80 100 100 88 5 6 10 4 0 0 0 2 2 0 0 0 0 0 0 0 0 0 0 0 0 0 8 100 94 100
5 9 25 18 57 4 0 0 0 1 33 74 78 25 13 5 26 32 8 0 0 0 0 0 2 4 0 0 0 0 0 0 0 0 0 0 0 0 0 11 100 95 91
95 90 63 48 23 18 3 46 73 75 91 98 74 92 5 8 34 67 10 0 0 0 0 0 0 0 0 0 0 0 0 0 0 0 0 0 0 0 0 0 99 100 57
97 36 49 74 46 23 91 94 49 21 71 64 84 40 27 88 100 100 1 2 0 0 0 0 0 0 0 0 0 0 0 0 0 0 0 0 0 0 0 0 87 100 55
23 30 47 99 90 5 66 12 96 100 79 96 48 29 100 100 100 100 63 2 4 1 0 0 0 0 0 0 0 0 0 0 0 43 0 0 0 0 0 0 9 100 72
29 44 51 95 100 56 55 96 85 58 100 45 87 99 83 80 98 96 72 9 2 4 1 3 0 0 0 0 0 0 0 0 0 0 1 0 0 0 0 0 0 89 91

GFSGL_prec_cloud_027.txt.gz
Cloud_Cover
0 0 0 0 0 0 0 0 0 0 0 0 17 35 5 60 97 100 99 98 14 73 100 100 100 100 100 100 100 100 100 99 100 100 97 16 71 40 34 100 97 82 80
0 0 0 0 0 0 0 0 0 0 0 0 0 5 5 34 100 100 100 100 100 100 100 100 100 100 100 100 100 74 58 48 7 12 3 47 96 45 99 100 40 100 100
0 0 0 0 0 0 0 0 0 0 0 2 0 4 5 75 100 100 100 100 100 100 100 100 100 100 100 100 97 100 99 31 58 51 19 27 82 100 100 100 95 83 100
0 0 0 0 0 0 0 0 0 0 0 0 0 0 4 4 2 54 100 100 92 99 100 100 100 100 100 99 55 88 100 89 97 98 100 100 100 100 79 21 100 100 100
0 0 0 0 0 0 0 0 15 1 4 3 5 4 0 0 0 2 99 88 100 100 100 100 100 100 100 100 93 71 56 28 100 100 100 100 100 100 89 100 22 26 94
0 0 0 0 0 0 0 0 19 30 7 5 5 5 5 3 0 14 85 99 57 18 96 100 100 100 100 100 100 100 100 100 100 100 100 100 100 100 5 7 9 4 1
0 0 0 0 0 4 67 1 53 58 5 100 100 5 5 5 41 49 100 65 5 5 97 100 100 100 100 100 100 100 100 100 99 100 100 100 100 50 2 0 0 18 0
0 0 0 0 2 51 29 31 31 79 71 31 50 0 3 54 100 99 97 99 2 55 100 100 94 58 100 100 100 100 100 100 100 94 90 80 89 0 0 1 0 0 0
0 0 0 0 2 60 95 88 56 97 100 98 66 75 96 6 100 100 100 83 7 87 97 100 61 80 92 100 93 95 100 100 100 100 100 47 1 0 0 1 0 7 14
0 5 1 1 5 4 81 100 92 94 95 100 100 100 99 92 95 98 100 0 11 97 50 20 10 86 91 29 10 5 84 99 69 45 50 99 5 5 5 0 56 52 21
3 1 5 5 12 100 100 100 80 99 91 100 92 81 100 93 56 92 88 100 100 72 44 59 56 99 16 16 31 74 92 82 100 99 74 97 56 70 38 98 80 4 1
5 5 21 20 60 100 100 98 91 100 100 100 100 100 100 83 91 35 62 78 29 67 46 87 100 100 47 46 71 100 100 34 25 14 18 93 61 52 25 6 0 0 0
9 21 99 100 100 100 100 100 100 100 100 78 57 9 38 45 48 74 100 100 98 89 100 100 95 100 100 74 9 6 5 5 5 55 66 67 100 96 85 43 4 0 0
68 24 94 100 100 94 99 100 100 93 100 99 76 100 100 17 49 46 61 93 100 99 97 74 80 4 1 2 5 13 4 15 80 22 94 60 68 100 98 51 9 5 0
100 100 100 99 100 100 100 100 100 100 97 85 22 76 89 86 100 69 80 98 68 98 95 74 7 12 45 21 58 80 100 100 81 62 62 32 7 72 100 100 58 5 3
100 100 86 66 51 86 97 100 100 84 67 39 9 53 78 96 100 100 88 76 62 8 5 17 6 86 95 100 100 100 100 100 63 51 43 22 15 39 37 44 6 5 7
76 99 82 25 100 98 54 54 5 33 80 5 64 100 70 0 5 3 51 74 98 62 0 0 1 39 100 100 100 100 76 85 38 1 14 100 100 87 54 6 0 1 5
100 100 100 100 100 100 93 94 26 98 100 100 40 4 25 0 0 2 36 70 10 30 5 40 18 54 100 94 58 34 12 28 10 1 5 12 23 10 5 1 0 0 1
100 100 100 75 100 72 58 81 5 5 74 70 5 11 18 0 2 5 10 36 95 95 100 84 10 5 5 12 17 9 5 0 0 0 0 1 3 2 0 0 0 0 0
100 100 100 100 100 74 6 10 92 21 20 1 0 0 0 0 0 0 14 36 44 25 5 24 5 0 0 0 1 0 0 0 0 0 0 0 0 0 0 0 0 0 0
51 8 22 5 2 36 43 28 80 97 100 100 100 77 0 0 3 37 27 1 0 0 0 0 0 0 1 1 0 0 0 0 0 0 0 0 0 0 0 0 0 0 1
88 12 3 58 98 72 66 81 100 100 100 100 100 95 2 0 52 91 68 50 13 7 0 0 0 1 4 0 0 0 0 0 0 0 0 0 0 0 0 0 0 0 14
96 100 36 54 6 100 85 83 100 100 100 100 92 100 87 0 3 100 100 98 39 34 10 0 0 2 0 0 0 0 0 0 0 0 0 0 0 0 0 0 0 0 30
99 97 91 100 48 100 100 100 100 36 83 94 99 100 33 86 47 78 15 100 96 31 18 3 5 1 0 0 0 0 0 0 0 0 0 0 0 0 0 0 0 0 31
100 100 100 100 88 100 64 96 69 100 100 100 100 51 99 92 6 21 16 80 41 3 17 11 5 0 0 0 0 0 0 0 0 43 0 0 0 0 0 0 0 0 28
96 94 100 100 96 64 89 99 100 100 100 80 23 92 100 40 32 39 28 5 39 29 16 14 5 0 0 0 0 0 0 0 0 0 0 0 0 0 0 0 0 0 2

GFSGL_prec_cloud_030.txt.gz
Cloud_Cover
0 0 0 0 0 0 0 0 0 0 0 0 16 0 0 5 5 5 5 5 7 9 86 100 100 100 98 70 18 5 52 69 83 7 5 62 84 97 8 6 71 68 16
0 0 0 0 0 0 0 0 0 0 0 0 0 3 11 0 0 1 4 5 16 29 7 13 5 6 10 24 15 97 100 100 26 61 78 79 82 6 4 10 96 72 23
0 0 0 0 0 0 0 0 0 0 0 0 4 2 5 0 0 0 0 0 1 39 90 0 55 100 100 100 100 100 100 92 16 97 99 93 32 48 100 100 97 100 69
0 0 0 0 0 0 0 0 0 0 0 0 0 0 2 33 4 0 0 0 25 66 100 54 10 8 5 93 90 100 100 100 98 56 29 56 67 100 100 100 100 99 100
0 0 0 0 0 0 0 0 0 0 0 0 0 7 42 29 90 4 1 2 5 79 94 75 3 5 5 67 96 100 100 99 72 100 74 91 100 86 94 100 100 100 100
0 0 0 0 0 0 0 0 0 0 16 7 1 5 43 20 3 0 0 6 76 68 98 80 0 5 65 100 100 100 100 56 14 34 100 100 100 99 86 100 99 100 44
0 0 0 0 0 0 0 0 0 0 34 25 5 5 72 65 37 48 23 37 100 95 34 99 2 75 100 100 100 92 9 25 5 44 73 98 100 98 100 100 100 100 90
0 0 0 0 0 0 0 0 2 13 64 84 81 46 75 54 48 8 5 56 80 94 96 100 100 100 100 100 100 84 45 23 14 33 40 100 100 100 100 100 100 100 100
0 0 0 0 0 0 3 4 0 19 98 100 100 88 43 74 15 96 23 29 99 100 100 100 38 71 71 79 5 5 46 64 44 54 100 100 100 100 100 100 58 5 1
0 0 0 0 0 17 6 22 26 100 100 100 100 100 100 100 100 100 100 100 100 94 54 12 15 28 89 14 7 65 100 100 100 100 68 3 0 10 27 4 13 98 38
0 0 0 0 0 7 9 8 57 100 100 100 100 100 100 100 100 100 100 100 66 60 57 6 6 30 51 100 100 100 93 38 95 81 0 5 5 5 97 67 77 24 33
0 0 0 3 6 45 100 100 82 100 100 100 100 100 100 100 81 100 100 100 93 78 47 26 38 76 93 98 86 89 5 1 5 3 5 4 2 90 72 53 28 18 41
0 11 7 5 17 100 100 95 99 99 88 97 100 100 100 100 100 100 100 100 98 94 68 53 43 96 76 100 100 7 21 5 5 5 5 6 92 8 5 6 7 100 13
14 5 6 87 100 100 100 100 97 89 94 100 100 100 100 100 100 100 86 82 98 42 3 21 100 85 41 81 100 100 30 4 0 10 10 0 4 5 22 98 80 88 88
100 92 93 93 86 100 100 100 100 99 99 100 76 81 87 100 99 82 3 23 100 43 5 13 19 3 48 10 65 79 52 98 100 100 99 2 0 1 4 5 30 73 63
100 100 100 98 100 100 100 100 98 100 100 99 90 100 70 56 93 88 0 0 1 2 1 0 1 2 2 83 100 100 100 100 100 100 48 0 0 0 0 3 5 5 50
100 100 100 100 89 99 74 96 99 100 91 100 100 100 67 99 54 5 77 68 50 0 0 0 3 5 100 100 40 77 100 100 100 14 0 0 0 0 0 0 5 6 5
99 70 99 100 100 100 100 100 100 98 94 100 87 100 50 8 81 71 4 0 0 16 0 0 0 0 100 59 51 94 12 1 3 0 0 0 0 0 0 0 0 0 0
95 100 91 30 100 100 100 95 92 100 99 55 94 69 31 5 3 4 19 0 0 0 0 3 5 0 0 0 0 0 0 0 0 0 0 0 0 0 0 0 0 0 0
66 20 6 37 37 94 90 56 24 93 100 100 10 1 1 0 0 0 0 0 0 0 0 0 0 0 0 0 0 0 0 0 0 0 0 0 0 0 0 0 0 0 0
14 89 100 100 100 100 100 100 98 52 98 41 6 5 5 0 0 0 0 0 0 0 0 0 0 0 0 0 0 0 0 0 0 0 0 0 0 0 0 0 0 0 0
100 100 100 100 95 100 78 100 93 56 10 32 54 93 77 1 14 0 62 80 40 14 0 0 0 0 0 1 0 0 0 0 0 0 0 0 0 0 0 0 0 0 0
100 100 100 100 97 96 100 100 100 100 57 100 57 28 79 92 64 68 99 100 100 100 7 0 0 0 0 0 0 0 0 0 0 0 0 0 0 0 0 0 0 0 0
100 100 100 90 75 100 100 88 70 97 93 6 6 99 31 48 33 13 87 47 23 100 98 0 0 0 0 0 0 0 0 0 0 0 0 0 0 0 0 0 0 0 0
100 100 100 80 87 100 100 90 92 3 38 52 31 99 44 100 29 79 95 0 2 14 16 0 0 0 0 0 0 0 0 0 0 0 0 0 0 0 0 0 0 0 0
100 100 100 100 100 100 94 4 53 98 65 100 45 99 100 100 35 97 13 8 0 34 14 2 0 0 0 0 0 0 0 0 0 0 0 0 0 0 0 0 0 0 0

GFSGL_prec_cloud_033.txt.gz
Cloud_Cover
0 0 0 0 0 0 0 0 0 0 0 0 0 0 0 4 4 0 0 0 39 3 0 1 0 2 5 5 52 18 5 54 100 8 5 5 75 71 94 55 60 40 5
0 0 0 0 0 0 0 0 0 0 0 0 0 0 0 0 1 0 0 0 0 4 0 0 0 0 0 5 5 6 5 74 56 68 28 18 10 5 30 10 5 5 5
0 0 0 0 0 0 0 0 0 0 0 0 0 0 0 2 3 4 5 0 0 0 35 12 3 0 1 0 5 5 5 5 57 24 16 18 16 5 5 5 7 1 85
0 0 0 0 0 0 0 0 0 0 0 0 0 0 0 2 5 5 5 2 0 0 51 99 16 34 36 5 5 5 20 100 96 100 100 83 5 75 21 5 18 44 94
0 0 0 0 0 0 0 0 0 0 0 0 0 0 0 5 5 5 5 5 5 4 56 100 76 18 60 18 93 99 100 100 100 100 100 100 36 9 100 95 52 37 100
0 0 0 0 0 0 0 0 0 0 0 0 0 0 3 5 5 5 9 5 5 11 13 42 96 19 100 81 99 100 100 100 100 100 79 4 5 5 74 51 100 96 100
0 0 0 0 0 0 0 0 0 0 0 0 34 50 14 6 82 62 77 25 5 14 76 23 100 77 14 97 100 100 100 100 92 5 19 22 68 32 6 60 79 47 74
5 5 5 5 4 3 5 5 4 0 15 10 65 100 100 100 100 52 32 5 8 18 50 10 89 100 60 100 100 100 100 100 86 79 25 100 90 100 13 1 0 0 1
5 5 5 5 5 5 5 5 0 1 46 60 98 100 88 100 100 81 54 9 77 35 93 8 68 100 100 100 100 100 71 64 6 67 36 5 4 3 1 4 26 0 0
0 0 0 0 0 0 0 9 0 2 32 99 96 51 100 100 97 88 99 98 97 100 100 100 100 100 100 100 100 81 26 15 41 98 96 6 34 2 0 3 2 1 0
2 0 0 0 0 0 2 5 13 23 7 5 5 30 99 100 100 100 99 100 100 100 100 100 100 100 86 100 59 18 43 100 100 100 100 100 100 100 36 0 44 57 41
5 5 2 3 4 16 3 19 17 86 68 42 58 93 98 92 89 100 100 100 100 99 98 100 97 100 100 99 54 62 66 9 24 100 75 94 100 100 54 65 98 86 40
2 0 0 4 56 52 12 86 100 39 42 60 93 100 87 100 100 100 100 100 100 100 100 100 100 99 100 75 35 5 9 6 48 100 78 43 32 80 100 66 12 0 4
0 0 17 76 100 100 96 78 5 18 49 100 90 95 93 100 100 92 100 100 100 100 100 88 41 5 25 19 50 3 1 4 5 5 16 1 0 0 0 0 0 0 0
19 65 70 79 71 100 100 100 91 97 97 100 100 98 100 86 60 93 100 100 100 100 98 25 3 0 0 0 0 0 2 92 4 9 54 8 0 0 0 0 0 0 0
78 65 100 100 100 100 100 100 100 100 92 100 100 100 100 72 96 100 36 99 100 36 5 6 0 0 0 0 0 0 68 93 0 0 7 9 10 0 0 0 0 0 0
56 100 100 100 100 100 100 100 100 99 100 98 100 77 100 91 100 100 100 100 8 16 11 5 0 0 0 0 0 4 54 21 0 0 0 0 0 0 0 0 0 0 0
5 97 100 100 76 99 98 100 94 100 100 100 100 100 97 82 100 100 83 7 14 66 6 5 0 0 0 0 0 0 0 0 2 16 38 7 0 0 0 0 0 0 0
100 100 100 100 100 100 80 100 100 100 100 100 27 27 54 76 90 88 100 74 10 12 23 4 2 0 0 0 0 0 0 0 0 0 0 0 0 0 0 0 0 0 0
100 100 100 100 100 100 100 100 49 81 59 99 32 19 43 78 92 100 100 71 5 3 1 2 0 0 0 0 0 0 0 0 0 0 0 0 0 0 0 0 0 0 0
100 100 100 100 100 99 48 100 98 100 100 100 100 100 100 100 92 20 90 50 2 0 0 0 0 0 0 0 0 0 0 0 0 0 0 0 0 0 0 0 0 0 0
100 92 93 100 100 100 100 100 98 100 100 100 100 100 100 100 69 76 100 100 74 0 0 0 0 0 0 0 0 0 0 0 0 0 0 0 0 0 0 0 0 0 0
100 100 100 100 100 100 100 100 96 91 80 100 100 100 100 100 99 17 13 70 97 52 5 3 0 0 0 0 0 0 0 0 0 0 0 0 0 0 0 0 0 0 0
100 100 100 100 100 100 98 89 100 100 100 100 100 100 100 100 85 48 9 29 3 5 10 3 0 0 0 0 0 0 0 0 0 0 0 0 0 0 0 0 0 0 0
100 100 100 99 99 100 100 100 100 97 99 99 96 97 99 97 10 16 100 46 5 4 5 2 0 0 0 0 0 0 0 0 0 0 0 0 0 0 0 0 0 0 0
100 100 91 91 96 97 100 74 97 100 100 100 100 93 43 63 75 43 5 50 43 4 0 0 0 0 0 0 0 0 0 0 0 0 0 0 0 0 0 0 0 0 0

GFSGL_prec_cloud_036.txt.gz
Cloud_Cover
0 0 0 0 0 0 0 0 0 0 0 0 0 0 0 0 0 4 5 3 3 1 0 0 0 0 0 0 0 0 0 3 0 0 1 51 33 5 5 5 2 0 2
0 0 0 0 0 0 0 0 0 0 0 0 0 0 0 0 1 5 0 0 5 11 5 2 0 0 0 0 0 0 0 0 0 0 3 5 5 5 81 91 16 34 4
0 0 0 0 0 0 0 0 0 0 0 0 0 0 0 0 0 0 0 2 5 2 4 5 1 12 1 3 19 0 5 5 12 87 99 84 100 100 100 100 91 85 5
0 0 0 0 0 0 0 0 0 0 0 0 0 0 0 0 0 0 0 3 13 35 0 5 5 25 84 86 63 97 52 79 100 100 100 100 100 100 100 100 100 71 21
0 0 0 0 0 0 0 0 0 0 0 3 0 0 5 4 0 4 5 5 35 8 0 5 5 97 97 57 40 100 100 99 94 100 100 100 100 100 100 85 29 94 91
0 0 0 0 0 0 0 0 0 0 1 5 2 0 0 0 0 5 5 5 50 5 5 5 5 100 81 100 98 96 100 100 100 100 100 100 100 100 96 86 5 17 62
97 70 0 0 0 0 0 5 40 1 5 6 0 0 0 0 2 5 46 84 98 35 5 5 5 88 100 48 100 100 100 100 98 78 95 94 17 32 9 5 5 4 0
0 0 0 0 0 0 10 20 59 53 0 58 2 0 0 0 5 78 100 100 100 29 5 5 10 95 65 4 99 99 100 83 31 96 100 84 51 13 20 5 10 9 9
4 0 0 0 0 0 18 39 48 94 40 65 18 0 5 42 100 100 100 100 71 16 9 47 31 87 34 36 94 48 79 94 100 100 53 27 92 100 100 87 100 99 17
100 26 5 4 0 0 4 19 55 55 72 74 49 24 52 100 100 100 100 90 5 5 6 42 100 100 100 99 84 100 100 74 100 91 28 56 54 12 100 100 100 100 86
48 14 8 0 0 0 2 10 66 93 99 86 48 54 100 100 100 100 100 100 49 100 100 82 100 100 100 100 100 98 100 99 7 53 46 26 5 2 0 19 59 5 8
68 93 100 13 4 0 0 57 100 81 99 100 100 100 100 100 100 100 100 100 72 99 100 80 100 99 100 100 100 82 33 20 13 5 5 1 0 0 2 0 29 24 20
42 59 95 73 97 5 27 93 100 100 100 100 100 100 100 100 100 100 100 100 93 61 57 100 100 100 100 100 99 55 24 6 3 0 0 0 0 0 0 0 0 0 0
5 5 5 99 90 65 93 99 100 100 100 100 100 100 100 100 100 100 100 100 100 65 97 100 100 100 100 76 100 62 36 17 1 0 0 0 0 0 0 0 0 0 0
61 97 90 97 100 100 100 100 100 100 100 100 100 100 100 100 100 100 100 100 100 87 75 96 100 100 100 16 16 29 14 0 0 0 0 0 0 0 0 0 0 0 0
100 100 100 100 100 100 100 100 100 100 100 100 100 100 100 100 100 100 100 100 100 99 100 93 100 45 8 7 5 5 0 1 0 0 0 0 0 0 18 15 0 0 0
100 100 100 100 100 100 100 100 100 100 100 100 100 100 100 100 100 100 100 100 92 66 41 96 13 77 22 37 9 5 0 0 0 0 0 0 0 3 14 0 0 0 0
100 100 100 100 100 69 90 98 100 100 100 100 100 100 98 100 100 100 96 89 58 94 100 43 94 34 96 73 1 0 0 0 0 0 0 11 0 0 0 0 0 0 0
100 100 100 100 100 60 86 100 100 100 100 100 99 71 100 100 100 90 9 4 82 100 100 73 100 96 20 41 4 0 0 0 0 0 0 0 0 0 0 0 0 0 0
100 100 100 100 100 100 100 100 100 100 100 85 97 100 100 100 84 56 92 83 100 8 100 100 100 96 24 15 5 0 0 0 0 0 0 0 0 0 0 0 0 0 0
100 100 90 94 94 100 100 100 100 100 100 100 100 100 100 83 70 62 80 79 100 100 100 100 100 97 12 7 0 0 0 0 0 0 0 0 0 0 0 0 0 0 0
100 100 100 100 100 94 84 100 100 100 100 100 100 93 100 100 100 100 100 100 100 100 100 86 41 35 2 0 0 0 0 0 0 0 0 0 0 0 0 0 0 0 0
100 100 100 100 100 100 100 100 100 93 86 96 100 100 100 100 100 100 100 100 100 14 28 100 99 27 0 0 0 0 0 0 0 0 0 0 0 0 0 0 0 0 0
100 100 100 100 100 100 100 100 100 100 100 100 100 98 100 100 100 100 100 100 100 100 100 88 4 0 3 0 2 0 0 0 0 0 0 0 0 0 0 0 0 0 0
100 83 100 100 100 100 100 100 100 100 100 100 100 100 100 86 71 100 100 100 100 100 99 58 5 0 0 0 0 0 0 0 0 0 0 0 0 0 0 0 0 0 0
93 85 100 100 100 99 93 100 100 92 95 100 100 100 100 99 88 100 94 69 68 18 5 5 2 0 0 0 0 0 0 0 0 0 0 0 0 0 0 0 0 0 0

GFSGL_prec_cloud_039.txt.gz
Cloud_Cover
0 0 0 0 0 0 0 0 0 0 0 0 0 0 0 0 0 0 0 0 0 0 4 9 34 10 6 2 0 0 0 0 0 2 0 0 3 37 64 4 4 5 4
0 0 0 0 0 0 0 0 0 0 0 0 0 0 0 0 0 2 2 0 0 0 2 17 96 68 10 5 5 5 5 0 3 5 5 42 7 5 5 5 5 16 22
0 0 0 0 0 0 0 0 0 0 0 0 0 0 0 0 5 0 2 0 0 0 19 82 100 70 51 84 68 32 95 48 7 80 69 61 6 41 33 85 92 100 100
0 0 0 0 0 0 0 0 0 0 0 0 0 0 0 0 0 0 0 0 0 5 75 100 100 100 28 94 85 58 100 53 100 100 100 100 90 99 100 98 100 100 100
30 5 1 0 0 0 0 0 0 0 0 0 0 0 0 0 0 0 0 3 5 78 100 100 100 100 87 98 76 59 88 46 70 100 100 100 100 100 100 100 65 54 51
4 72 45 4 0 0 0 0 0 0 0 0 0 0 0 0 0 0 0 2 99 100 100 100 100 93 100 100 53 59 6 58 95 84 63 52 62 78 92 100 8 5 55
5 4 0 4 5 0 0 0 0 0 0 0 0 0 0 0 0 0 12 95 100 100 100 100 100 99 100 100 100 43 5 30 27 86 83 58 94 99 100 66 6 6 10
10 2 10 82 55 4 0 0 0 12 7 0 11 0 0 0 0 2 99 100 100 100 100 100 100 94 100 100 84 9 5 48 55 22 100 86 100 100 78 84 17 34 59
46 16 21 100 56 0 0 0 0 50 85 55 65 29 1 1 5 52 100 100 100 100 100 100 100 100 100 91 93 62 44 20 100 93 100 81 96 100 100 84 98 100 25
79 84 67 4 1 4 2 0 3 40 19 100 100 46 6 1 62 100 100 100 100 100 100 100 100 100 90 100 68 43 79 99 60 100 99 100 67 37 5 63 16 11 0
0 5 96 100 67 95 34 28 33 60 98 100 100 95 55 100 100 100 100 100 100 100 100 100 100 96 87 100 90 100 97 60 55 52 28 51 3 1 0 0 1 0 2
19 95 77 56 16 99 97 34 66 96 100 100 100 100 98 100 100 100 100 100 100 100 100 100 100 95 100 100 100 100 100 50 88 100 16 4 2 0 0 0 0 65 53
4 4 100 49 100 100 100 100 100 100 100 100 100 100 100 100 100 100 100 100 100 100 100 100 100 100 100 100 100 100 100 80 30 15 6 3 5 0 0 0 0 0 0
0 0 0 0 1 6 93 70 90 100 100 100 100 100 100 100 100 100 100 100 100 100 100 100 100 100 100 100 100 100 100 50 24 3 20 5 0 0 0 0 0 0 0
0 0 0 0 15 92 100 100 100 100 100 100 100 100 100 100 100 100 100 100 100 100 100 100 100 100 100 92 56 100 91 43 26 5 15 0 0 0 0 0 0 0 0
35 73 100 100 100 100 100 100 100 100 100 100 100 100 100 100 100 100 100 100 100 100 100 100 100 100 100 87 30 18 25 17 48 70 0 0 0 0 0 0 0 0 0
100 100 100 100 100 100 100 100 100 100 100 100 100 100 100 100 100 100 100 100 100 100 100 98 64 86 89 8 9 8 65 6 7 0 0 0 0 0 0 0 0 0 0
100 100 100 100 100 100 100 100 100 100 100 100 100 100 100 100 100 100 100 100 100 100 88 69 100 89 96 6 5 23 64 12 5 0 0 0 0 0 0 0 0 0 0
100 100 100 100 100 100 100 100 100 100 100 100 100 100 100 100 100 100 100 100 100 100 100 94 44 49 17 78 96 5 2 3 4 0 0 0 0 0 0 0 0 0 0
100 100 100 100 100 100 100 100 100 100 100 100 100 100 100 100 100 100 100 100 100 100 84 82 85 77 5 6 92 5 0 0 2 0 0 0 0 0 0 0 0 0 0
100 100 100 100 100 100 100 100 100 100 100 100 100 100 100 100 100 100 100 100 100 97 99 26 17 76 17 20 0 15 3 0 0 0 0 0 0 0 0 0 0 0 0
96 100 100 100 100 100 100 100 91 66 100 90 100 100 100 95 100 100 100 98 68 21 5 18 64 75 14 1 4 54 5 4 0 0 0 0 0 0 0 0 0 0 0
100 100 100 100 100 100 100 100 84 100 47 29 45 66 60 84 99 99 7 26 10 18 42 75 72 100 24 5 17 62 90 3 0 0 0 0 0 0 0 0 0 0 0
100 100 100 100 100 100 100 100 100 97 100 94 99 92 77 100 96 94 96 100 99 98 22 62 52 10 26 60 82 88 1 0 0 0 0 0 0 0 0 0 0 0 0
100 100 100 100 100 100 100 100 100 100 100 100 100 100 98 86 100 94 100 92 40 16 13 36 55 2 5 5 2 0 0 0 0 0 0 0 0 0 0 0 0 0 0
100 100 100 100 100 100 100 100 100 100 100 100 100 100 87 44 99 87 84 85 57 85 72 8 30 5 4 3 5 0 1 3 0 2 1 0 0 0 0 0 0 0 0

GFSGL_prec_cloud_042.txt.gz
Cloud_Cover
0 0 0 0 0 0 0 0 0 0 0 0 0 0 0 0 0 0 0 0 2 2 0 14 100 100 83 62 40 74 7 8 100 48 5 4 5 3 0 0 0 0 0
4 57 55 5 1 0 0 0 0 0 0 0 0 0 0 0 0 0 0 0 0 5 5 67 100 100 100 99 31 84 68 10 90 5 5 5 5 79 99 97 99 57 95
34 100 100 100 50 13 0 0 0 0 0 0 0 0 0 0 0 0 0 0 0 5 5 77 100 100 86 100 100 88 36 5 14 35 48 44 20 36 100 100 100 100 100
84 100 100 100 70 99 25 0 0 0 0 0 0 0 0 0 0 0 0 0 0 5 5 91 100 100 100 100 100 100 65 49 69 40 61 50 100 13 87 97 91 76 39
6 99 100 19 24 5 5 100 42 0 0 0 0 0 0 0 0 0 0 0 12 13 5 100 100 100 100 100 100 11 5 74 70 27 6 100 17 99 67 50 29 62 97
5 5 5 5 5 5 21 66 100 17 0 0 0 0 0 0 0 0 0 2 5 5 62 100 92 100 100 100 100 10 100 67 70 81 78 100 9 5 8 91 100 98 95
5 5 5 5 5 0 0 0 0 0 0 0 0 0 0 0 0 0 0 2 4 5 100 100 100 100 99 88 99 100 98 6 87 100 75 100 70 89 78 96 98 99 92
99 100 98 48 4 5 1 4 4 0 0 0 0 0 0 0 0 0 1 4 0 81 100 100 100 84 89 100 100 73 86 100 100 100 100 100 96 94 100 100 75 38 84
100 87 99 99 48 2 2 35 87 4 0 0 0 0 5 5 7 5 5 10 95 100 100 100 100 100 100 93 100 100 100 100 84 100 100 100 89 100 69 84 99 100 100
0 2 36 67 5 2 4 96 30 20 10 0 2 4 7 7 54 13 34 100 100 100 100 100 100 100 100 83 100 100 100 41 100 100 100 100 64 25 30 68 18 2 0
0 5 62 97 84 100 100 56 45 100 61 53 94 84 91 98 44 55 100 100 100 100 100 100 100 100 100 100 100 100 72 100 100 100 93 93 10 7 6 5 11 0 0
44 50 62 100 100 99 93 77 100 28 100 100 91 100 100 100 100 100 100 100 100 100 100 100 100 100 100 100 100 100 100 100 100 100 100 100 49 5 54 5 5 0 0
2 0 16 59 17 96 100 69 71 88 100 100 100 100 100 100 100 100 100 100 100 99 100 100 100 100 100 100 100 100 100 100 100 100 100 71 5 20 5 4 1 0 0
0 0 0 0 31 20 8 57 99 98 100 100 100 100 100 100 100 100 100 100 100 100 100 100 100 100 100 100 100 100 100 100 100 100 93 28 5 5 5 5 0 0 0
0 0 0 17 100 100 100 100 100 100 100 100 100 100 100 100 100 100 100 100 100 100 100 100 100 100 100 100 100 100 100 100 100 65 36 56 5 18 6 0 0 0 0
96 90 100 100 100 100 100 100 100 100 100 100 100 100 100 100 100 100 100 100 100 100 100 100 100 100 100 100 100 100 100 99 83 64 68 99 5 69 29 0 0 0 0
100 100 100 100 100 100 100 99 100 100 100 100 100 100 100 100 100 100 100 100 100 100 100 100 100 100 100 100 100 100 100 66 100 91 98 100 100 96 0 0 0 0 0
100 100 100 100 100 100 100 100 100 100 100 100 100 100 100 100 100 100 100 100 100 100 100 100 100 100 100 100 100 100 100 47 100 59 100 100 100 6 0 0 0 0 0
100 100 100 94 81 74 100 100 100 100 100 100 100 100 100 100 100 100 100 100 100 100 100 100 100 100 100 100 100 76 59 78 100 100 100 100 6 0 0 0 0 0 0
99 84 83 100 98 100 100 100 100 100 100 100 100 100 100 100 100 100 100 100 100 100 100 100 100 100 100 98 84 100 100 100 100 100 98 3 0 0 0 0 0 0 0
100 100 100 100 84 100 100 100 100 100 100 100 100 100 100 100 100 100 100 100 100 100 100 100 100 100 100 100 98 100 100 100 83 5 4 5 0 0 0 0 0 0 0
100 100 100 100 77 65 100 100 100 100 100 100 100 100 100 20 14 63 100 74 100 100 100 100 100 100 100 100 100 100 100 100 30 2 8 5 0 0 0 0 0 0 0
71 98 61 47 25 39 47 100 100 100 100 100 100 100 100 100 100 100 100 100 100 100 100 100 100 100 100 100 100 53 30 4 3 1 0 0 0 0 0 0 0 0 0
32 38 5 8 5 13 8 100 100 100 100 100 94 100 100 100 100 100 100 100 100 100 100 100 100 100 69 11 19 84 24 5 0 0 3 0 4 5 0 0 0 0 0
61 91 100 89 57 98 71 60 100 100 100 100 100 99 82 100 98 100 100 100 100 95 100 98 96 54 15 12 7 5 3 0 1 4 1 1 5 4 0 0 0 0 0
41 60 65 81 78 69 90 100 100 100 100 100 100 100 100 100 100 100 95 100 99 69 86 68 91 96 53 53 8 55 1 0 0 0 1 1 5 0 1 0 0 0 0

GFSGL_prec_cloud_045.txt.gz
Cloud_Cover
0 0 0 0 0 0 0 0 0 0 0 0 0 0 0 0 0 0 0 0 0 0 0 0 12 8 88 21 29 99 4 15 100 18 0 3 0 0 0 4 4 5 5
0 0 4 0 0 28 6 10 5 5 2 0 0 0 0 0 0 0 0 0 0 0 0 2 16 58 42 100 99 40 98 40 30 10 5 5 5 5 5 3 4 5 26
5 4 12 22 34 100 100 100 64 5 16 5 4 0 0 0 0 0 0 0 0 0 0 5 73 100 25 87 100 62 91 89 19 60 6 34 5 62 12 14 99 22 16
29 98 99 77 100 100 100 100 78 56 14 16 17 5 2 0 0 0 0 0 0 0 5 7 55 68 73 100 100 100 100 100 49 44 5 1 5 66 71 7 100 91 21
5 5 87 31 4 22 76 12 30 6 9 2 5 2 1 0 0 0 0 0 0 4 5 15 5 7 5 100 100 100 100 96 5 5 5 5 74 100 62 89 100 100 85
0 1 23 11 5 2 5 5 5 5 1 2 0 0 0 0 0 0 0 0 0 5 4 3 0 0 96 76 100 100 100 100 33 18 6 90 61 99 49 100 100 100 99
5 3 3 5 4 0 0 0 0 0 0 0 0 0 0 0 1 5 5 1 0 0 0 0 32 100 99 97 100 100 100 100 89 82 100 94 100 100 100 100 100 98 82
0 0 0 2 5 4 18 16 17 1 0 2 10 3 0 0 0 5 5 5 0 0 8 100 100 100 100 100 100 100 57 65 90 100 100 100 100 100 100 100 100 51 57
1 3 2 7 9 5 5 1 0 0 3 4 85 2 0 3 13 26 43 57 3 1 99 100 92 95 100 100 100 100 90 89 100 100 100 100 100 100 100 100 91 100 73
0 1 5 5 5 2 71 85 70 8 0 4 47 43 34 5 13 67 96 98 86 90 72 49 16 100 100 100 100 100 100 100 100 100 100 100 100 100 100 39 79 82 92
0 0 0 0 5 40 100 100 99 84 100 94 99 59 88 20 56 65 100 100 81 100 100 100 100 100 100 100 100 100 100 100 100 100 100 100 100 100 60 96 50 60 83
0 0 0 0 3 43 99 18 100 100 100 100 100 90 84 100 100 100 100 100 100 100 100 100 100 100 100 100 100 100 100 100 100 100 100 100 100 100 96 100 47 33 100
0 0 0 0 1 5 5 12 57 75 38 16 99 100 78 100 100 100 100 100 100 100 100 100 100 100 100 100 100 100 100 100 100 100 100 100 100 84 100 100 100 20 42
0 0 0 0 0 1 5 28 98 79 29 54 19 47 73 100 100 100 100 100 100 100 100 100 100 100 100 100 100 100 100 100 100 100 100 100 100 100 100 100 100 98 71
0 0 2 5 29 67 84 52 51 11 39 41 36 87 100 100 100 100 100 100 100 100 100 100 100 100 100 100 100 100 100 100 100 100 100 100 100 100 100 100 100 94 66
1 11 90 99 100 100 100 100 100 94 100 100 98 89 99 100 100 100 100 100 100 100 100 100 100 100 100 100 100 100 100 100 100 100 100 100 100 100 100 100 100 64 6
100 100 100 100 100 100 73 64 100 100 100 100 100 100 100 100 100 100 100 100 100 100 100 100 100 100 100 100 100 100 100 100 100 100 100 100 100 100 100 100 32 5 12
100 100 100 100 100 92 89 72 37 58 89 95 100 100 100 100 100 100 100 100 100 100 100 100 100 100 100 100 100 100 100 100 100 100 100 100 100 100 51 20 6 5 3
100 100 100 100 100 100 99 95 99 100 97 100 100 98 99 100 100 100 100 100 100 100 100 100 100 100 100 100 100 100 100 100 100 100 100 100 100 100 8 8 13 98 5
100 100 100 89 100 100 100 100 100 98 90 100 100 100 100 100 100 100 100 100 100 100 100 100 100 100 100 100 100 100 100 100 100 100 100 100 70 6 69 94 100 41 5
100 100 100 100 100 99 87 51 30 54 93 100 100 98 100 100 100 100 100 100 100 100 100 100 100 100 100 100 100 100 100 100 100 99 64 26 6 12 100 89 5 5 0
98 100 96 93 88 45 32 83 100 100 100 94 100 100 100 100 100 100 100 100 100 100 100 100 100 100 100 100 100 100 100 100 97 100 47 8 33 96 53 5 0 0 0
78 100 100 70 100 79 89 100 100 100 100 100 100 100 95 100 100 100 100 100 100 100 100 100 99 100 100 100 76 55 36 90 71 99 100 100 99 52 9 5 0 0 0
100 100 100 81 100 35 30 23 64 99 100 100 100 74 98 100 100 100 100 100 100 100 100 100 100 100 96 100 100 95 85 94 100 100 74 65 12 5 5 5 4 0 0
100 100 100 99 98 10 11 7 41 96 99 98 42 12 62 100 100 100 100 100 100 100 100 99 98 89 100 98 71 56 12 13 69 92 5 29 10 5 5 6 5 5 0
100 100 61 99 80 99 53 100 100 100 96 54 29 53 14 9 73 100 100 100 100 100 100 100 94 54 18 15 68 44 41 14 71 12 5 6 19 5 55 100 43 5 4

GFSGL_prec_cloud_048.txt.gz
Cloud_Cover
0 0 0 0 0 0 0 0 0 0 0 4 4 0 0 0 0 0 0 0 17 0 0 0 0 5 23 12 93 3 3 4 0 5 3 9 5 5 1 0 5 100 93
0 0 0 0 0 0 0 0 35 17 88 5 4 2 5 0 2 0 0 0 4 1 0 0 2 5 5 74 13 5 5 5 5 73 54 38 16 3 2 1 10 100 58
0 0 0 0 0 0 0 0 82 100 100 72 28 5 5 5 4 1 0 0 0 0 0 0 4 5 5 1 0 4 6 13 99 100 50 100 100 32 5 1 2 100 7
2 0 2 56 2 5 12 21 100 100 100 34 5 5 1 0 0 0 0 0 0 1 5 3 1 2 0 0 0 12 68 93 98 100 100 100 100 58 5 4 31 71 96
5 0 10 5 1 2 0 0 5 24 1 0 4 3 2 0 0 0 0 0 0 0 0 0 0 0 0 3 45 14 100 100 100 100 95 52 84 85 7 74 99 100 90
0 0 0 0 0 5 3 0 0 0 0 0 0 0 0 0 0 0 0 0 0 0 0 0 0 0 20 24 5 100 100 100 100 100 100 100 61 41 29 87 100 88 100
1 1 5 1 0 5 1 0 0 0 0 2 0 0 0 0 0 0 0 0 0 0 0 0 1 21 47 86 63 70 100 100 100 100 100 100 73 90 100 100 100 100 76
5 0 0 0 0 2 5 0 0 0 4 0 0 0 0 15 4 1 17 87 4 1 0 32 100 26 18 100 100 100 100 100 100 100 100 100 100 99 100 100 100 100 39
1 0 0 0 0 2 0 1 5 55 12 0 0 0 0 1 59 99 98 59 99 61 100 100 100 100 100 100 100 100 100 100 100 100 100 100 100 100 100 100 100 100 100
1 3 1 0 0 5 5 5 5 5 5 4 7 1 8 65 100 100 100 30 100 100 100 100 100 99 99 100 100 100 100 100 100 100 100 100 100 100 100 100 100 100 100
0 0 0 0 0 0 0 0 0 4 5 51 99 39 95 100 100 100 100 100 100 100 100 100 100 100 100 100 100 100 100 100 100 100 100 100 100 100 100 100 100 100 100
0 0 0 0 0 0 0 0 0 5 61 100 95 76 91 100 100 100 100 100 100 100 100 100 100 100 100 100 100 100 100 100 100 100 100 100 100 100 100 100 100 100 100
0 0 0 0 0 0 0 0 1 24 5 13 8 64 58 9 100 100 100 100 100 100 100 100 100 100 100 100 100 100 100 100 100 100 100 100 100 100 100 100 100 100 100
0 0 0 0 0 0 0 0 0 0 2 5 2 0 31 0 9 97 94 65 100 100 100 100 100 100 100 100 100 100 100 100 100 100 100 100 100 100 100 100 100 100 100
0 0 0 0 0 0 4 11 0 0 18 0 3 0 2 0 29 98 98 100 100 100 100 100 100 100 100 100 100 100 100 100 100 100 100 100 100 100 100 100 100 100 100
0 0 0 0 0 4 3 24 99 90 100 100 100 43 15 79 100 100 100 100 100 100 100 100 100 100 100 100 100 100 100 100 100 100 100 100 100 100 100 100 100 100 100
0 0 0 0 0 2 0 0 45 100 100 100 100 100 97 100 100 100 100 100 100 100 100 100 100 28 100 100 100 100 100 100 100 100 100 100 100 100 100 100 85 7 98
13 35 2 1 0 2 31 58 44 69 65 83 94 99 100 100 100 100 100 100 100 100 100 100 100 100 100 100 100 100 100 100 100 100 100 100 100 100 100 100 100 100 76
82 100 100 94 98 97 75 89 95 82 91 54 40 58 83 100 100 100 100 82 93 100 100 100 100 100 100 100 100 100 100 100 100 100 100 100 100 100 100 100 100 92 22
86 100 78 94 94 75 50 80 97 99 85 100 97 94 85 100 100 100 100 100 100 100 100 100 100 100 100 100 100 100 100 100 100 100 100 100 100 100 100 100 81 8 5
79 97 100 100 99 100 99 100 100 100 81 38 57 85 76 91 100 100 100 96 57 98 99 100 100 100 100 100 100 100 100 100 100 100 100 100 100 91 97 63 46 5 67
100 93 70 52 63 57 34 26 13 13 61 74 98 85 100 100 98 96 76 100 70 100 100 100 100 100 100 100 100 100 100 100 100 100 100 91 68 82 22 22 6 43 9
100 50 22 16 17 24 8 22 80 84 70 60 96 92 100 100 92 100 100 100 98 100 75 66 100 100 100 100 100 100 100 100 100 96 81 93 55 40 13 22 27 6 1
98 46 5 25 54 33 4 23 24 98 100 100 87 100 100 100 100 95 64 29 100 100 100 100 98 100 100 100 100 100 66 99 100 75 99 63 24 73 89 59 14 5 5
99 81 95 78 89 83 84 87 96 85 100 100 100 100 97 83 63 33 25 12 40 100 100 100 100 100 100 100 100 100 100 100 94 100 89 79 16 84 55 29 26 5 13
100 100 96 99 89 96 98 100 99 79 100 100 100 99 100 99 77 50 53 8 5 13 44 27 74 100 100 100 100 99 100 100 100 100 20 77 98 73 49 59 48 6 39

GFSGL_prec_cloud_051.txt.gz
Cloud_Cover
0 0 0 0 0 0 0 0 0 0 0 0 2 2 0 3 4 0 0 0 0 0 0 0 0 4 5 16 0 0 2 0 2 0 5 4 82 36 71 40 8 34 84
0 0 0 0 0 0 0 0 0 0 0 74 100 98 38 19 5 0 5 5 0 2 0 0 0 0 0 0 0 0 0 0 2 5 25 63 100 97 100 85 90 96 43
0 0 0 0 0 0 0 0 0 0 0 84 100 100 80 10 4 4 0 0 0 0 0 0 0 0 0 0 0 3 4 4 0 5 27 99 100 100 100 99 81 100 56
0 0 0 0 0 0 0 0 0 1 1 0 100 100 65 5 0 0 0 0 0 0 0 0 0 0 0 0 1 1 0 28 11 5 67 99 100 100 100 100 92 100 24
0 0 0 4 0 0 0 0 0 0 0 0 3 11 0 0 0 0 0 0 0 0 0 0 0 0 0 4 4 5 35 100 100 99 43 99 94 100 100 65 69 100 100
0 0 0 0 0 3 3 5 5 5 1 0 0 0 0 0 0 0 0 0 0 0 28 75 0 30 55 66 100 100 98 100 100 100 100 100 100 100 100 100 100 100 100
0 0 0 0 5 5 5 0 4 0 0 0 0 0 0 0 0 0 0 0 5 13 100 100 100 100 100 100 100 100 100 100 70 100 100 100 100 100 100 100 100 100 100
0 0 0 0 0 0 2 0 0 0 0 0 0 0 0 0 0 0 0 1 68 97 100 100 100 100 100 100 100 100 100 100 100 100 100 100 100 100 100 100 100 100 100
0 0 0 4 2 0 0 0 0 0 2 0 0 0 0 0 0 0 2 36 100 100 100 100 100 100 100 100 100 100 100 100 100 100 100 100 100 100 100 100 100 100 100
0 0 0 0 0 0 0 1 5 5 3 0 0 0 0 5 7 77 100 100 97 100 100 100 100 100 100 100 100 100 100 100 100 100 100 100 100 100 100 100 100 100 100
0 0 1 5 5 5 4 3 0 0 0 0 0 2 4 5 80 100 87 48 97 22 65 61 96 97 39 19 100 100 100 100 100 100 100 100 100 100 100 100 100 100 100
0 0 2 0 0 0 0 0 0 0 0 0 0 0 0 11 99 52 26 1 5 4 74 80 73 100 100 100 100 100 100 100 100 100 100 100 100 100 100 100 100 100 100
0 0 0 0 0 0 0 0 0 0 0 1 0 15 0 6 99 100 100 78 17 0 3 5 98 100 100 100 100 100 100 100 100 100 97 100 100 100 100 100 100 100 100
0 0 0 0 0 0 0 0 0 0 0 0 0 0 0 38 14 5 43 6 58 42 55 23 60 100 94 100 100 100 100 100 100 100 100 100 100 100 100 100 100 100 100
0 0 0 0 0 0 3 15 0 2 18 2 0 1 13 7 20 1 0 0 0 12 85 94 100 100 100 100 100 100 100 100 100 100 100 100 100 100 100 100 100 100 100
0 0 0 0 0 0 0 2 96 91 100 100 100 55 25 80 100 100 100 100 100 100 100 100 100 100 100 100 100 100 100 100 100 100 100 100 100 100 100 100 100 100 100
0 0 0 0 0 0 11 6 0 54 100 100 100 100 100 97 100 100 100 100 100 100 100 100 100 100 100 100 100 100 100 100 100 100 100 100 100 100 100 100 100 100 100
0 7 0 0 8 23 12 18 12 22 33 0 74 56 98 100 100 100 100 100 100 100 100 100 100 100 100 100 100 100 100 100 100 100 100 100 100 100 100 100 100 100 100
19 15 17 18 19 15 35 40 16 44 21 1 0 35 64 100 100 100 100 88 100 100 100 100 100 100 100 100 100 100 100 100 100 100 100 100 100 100 100 100 100 100 100
100 100 100 69 58 87 65 46 81 52 53 54 28 45 6 48 64 100 100 100 100 100 100 64 68 60 61 67 100 100 100 100 100 100 100 100 100 100 100 100 100 100 100
94 100 76 69 62 67 72 64 43 55 75 87 83 79 80 57 83 79 100 100 98 49 82 98 48 46 82 100 100 100 100 100 100 100 100 100 100 100 100 100 100 100 100
2 8 4 14 19 15 20 61 92 68 11 26 17 40 100 42 62 91 91 22 63 70 96 69 21 34 66 84 100 100 100 100 100 100 100 100 100 100 100 100 100 100 100
76 43 83 74 77 85 100 100 96 92 52 25 29 38 59 80 100 81 82 44 33 30 15 20 39 84 100 100 98 100 100 100 100 100 100 100 100 100 100 100 100 100 99
100 98 100 100 100 100 100 100 100 49 74 79 100 49 31 29 14 13 73 76 20 55 38 95 83 100 100 45 32 98 100 100 100 100 100 100 100 100 100 100 99 82 43
100 100 100 100 100 100 100 100 100 98 100 76 68 96 97 71 42 92 100 95 50 25 5 5 6 36 5 8 62 100 94 7 100 100 100 100 100 100 100 98 70 4 6
46 76 100 100 100 100 88 73 94 70 96 96 100 100 100 100 100 100 100 87 22 8 5 5 14 35 5 27 81 5 5 7 52 35 99 100 100 100 97 15 18 35 83

GFSGL_prec_cloud_054.txt.gz
Cloud_Cover
0 0 0 0 0 0 0 0 0 0 0 0 0 16 100 100 76 48 5 5 0 0 0 0 0 0 0 0 0 0 0 0 4 4 12 5 5 3 37 43 100 100 100
0 0 0 0 0 0 0 0 0 0 0 0 0 20 100 100 100 97 12 0 0 0 0 0 0 0 0 0 0 0 0 0 0 0 0 4 3 3 90 100 100 100 100
0 0 0 0 0 0 0 0 0 0 0 0 0 0 6 100 100 100 8 0 0 0 0 0 0 0 0 0 0 2 52 45 47 5 14 3 18 33 73 100 100 100 100
0 0 0 0 0 0 0 0 0 0 0 0 0 0 0 18 65 2 0 0 0 0 0 0 0 23 89 18 89 90 100 83 100 76 52 92 100 100 100 100 100 100 97
0 0 0 0 0 0 0 0 0 0 0 0 0 0 0 0 0 0 0 0 0 0 5 6 38 99 100 100 81 99 100 100 89 94 84 54 100 100 100 100 100 100 100
0 0 0 0 4 0 0 0 0 0 0 0 0 0 0 0 0 0 0 0 0 0 18 34 100 100 100 85 44 100 100 100 97 100 100 100 100 100 100 100 100 100 100
0 0 0 0 0 0 2 0 0 0 0 0 0 0 0 0 0 0 0 0 0 32 64 99 8 97 100 100 100 74 99 100 100 100 100 100 100 100 100 100 100 100 100
0 0 0 0 0 0 0 0 0 0 0 0 0 0 0 0 0 0 0 0 0 87 91 93 95 100 100 100 90 100 100 100 100 100 100 100 100 100 100 100 100 100 100
12 8 0 0 0 0 0 0 0 0 0 0 0 0 0 0 0 2 4 4 5 50 38 7 12 11 90 48 96 97 100 100 100 100 100 100 100 100 100 100 100 100 100
4 0 0 0 0 0 0 0 0 0 0 0 1 0 0 0 0 5 5 31 65 80 42 4 5 2 0 2 96 20 100 100 100 100 100 100 100 100 100 100 100 100 100
0 2 3 5 1 0 0 0 0 1 5 2 0 0 0 0 0 4 0 4 39 23 5 5 5 0 0 2 5 83 34 100 100 100 100 100 100 100 100 100 100 100 100
5 8 11 5 8 7 6 5 13 10 3 0 0 0 0 0 11 62 1 68 16 4 5 65 5 4 0 9 23 16 38 100 99 100 100 100 100 100 100 100 100 100 100
94 100 96 98 76 19 4 0 0 0 0 8 0 0 6 0 0 57 48 4 4 42 72 26 68 2 54 49 16 48 89 100 100 100 100 100 100 100 100 100 100 100 100
2 0 0 0 0 0 0 0 0 0 3 0 0 0 0 0 0 0 0 31 58 40 29 17 62 76 48 34 64 100 100 100 100 100 100 100 100 100 100 100 100 100 100
0 0 0 0 0 0 5 28 12 24 22 19 0 9 0 0 5 12 1 2 0 0 0 5 85 98 100 93 90 85 100 100 100 100 100 100 100 100 100 100 100 100 100
0 0 0 0 0 0 6 10 95 92 100 100 100 13 15 80 100 100 100 80 80 100 43 99 99 100 100 100 100 100 100 100 100 100 100 100 100 100 100 100 100 100 100
0 0 0 0 0 0 0 0 2 47 100 100 100 100 73 97 100 100 100 100 100 83 99 100 100 100 100 100 100 100 100 100 100 100 100 100 100 100 100 100 100 100 100
0 0 0 0 0 0 0 6 2 0 0 0 83 70 100 100 100 100 100 90 100 94 77 84 97 100 98 93 92 91 99 100 100 100 100 100 100 100 100 100 100 100 100
0 0 10 2 0 25 100 100 100 100 93 52 34 31 97 100 100 100 100 38 44 41 17 41 39 23 25 20 30 13 38 33 56 70 100 100 100 100 100 100 100 100 100
5 15 0 0 3 73 100 100 100 96 59 0 0 0 0 22 12 85 68 86 73 25 46 81 43 32 80 32 66 92 56 78 94 88 100 100 100 100 100 100 100 100 100
1 2 0 0 6 85 85 8 1 12 78 33 34 18 99 2 2 15 18 19 78 96 100 98 29 5 34 50 48 28 58 32 51 75 100 100 100 100 100 100 100 100 100
25 3 19 55 51 14 93 100 93 83 94 84 8 13 100 36 93 100 100 58 13 25 16 17 5 24 25 46 48 34 43 84 49 72 74 100 100 100 100 100 100 100 100
70 86 85 84 84 100 100 100 98 89 43 20 1 33 24 79 100 71 88 100 91 6 30 33 6 5 4 9 51 42 83 100 19 78 100 100 53 100 100 100 100 87 100
100 99 94 42 99 99 7 44 100 100 97 48 93 54 99 100 100 100 100 100 69 66 1 9 6 5 13 56 15 5 74 97 65 14 55 91 100 91 26 8 84 100 100
100 11 89 84 41 100 100 17 28 27 99 100 100 33 61 29 32 34 10 51 91 100 100 79 93 98 39 6 29 40 39 82 28 18 7 24 45 75 60 72 33 94 90
100 100 92 100 100 95 86 72 91 60 58 58 61 22 82 12 67 100 91 100 40 8 5 12 8 34 64 57 40 17 4 5 8 6 5 5 7 23 5 20 52 79 67

GFSGL_prec_cloud_057.txt.gz
Cloud_Cover
0 0 0 0 0 0 0 0 0 0 0 0 0 0 0 38 11 96 89 82 78 5 0 0 0 0 0 0 0 0 0 0 0 5 5 40 2 1 4 38 13 86 100
0 0 0 0 1 0 0 0 0 0 0 0 0 0 0 0 0 33 99 100 0 0 0 0 0 0 5 6 21 68 100 100 100 9 25 94 13 92 82 96 16 61 98
0 0 0 0 0 0 0 0 0 0 0 0 0 0 0 0 0 0 4 2 0 0 0 0 0 0 12 89 52 4 11 50 6 31 84 23 61 82 19 26 82 52 96
0 0 0 0 0 0 0 0 0 0 0 0 0 0 0 0 0 0 0 0 0 0 0 4 3 0 2 68 100 10 5 6 94 64 91 74 93 81 21 43 100 98 78
0 0 0 0 0 0 0 0 0 0 0 0 0 0 0 0 0 0 0 0 0 0 0 1 5 4 4 5 29 78 22 48 77 100 99 100 100 100 100 100 100 100 100
0 0 0 0 0 0 0 0 0 0 0 0 0 0 0 0 0 0 0 0 0 0 0 2 5 5 4 5 5 24 81 82 98 100 54 100 100 100 100 100 100 100 100
0 0 0 0 0 0 0 0 0 0 0 0 0 0 0 0 0 0 0 0 0 0 0 0 3 0 2 2 2 4 5 5 67 100 100 100 100 100 100 100 100 100 100
0 0 0 0 0 0 0 0 0 0 0 0 0 0 0 0 0 0 0 0 0 0 1 5 32 0 0 0 2 0 0 1 21 9 100 100 100 100 100 100 100 100 100
0 0 0 0 0 0 5 4 0 0 0 0 0 0 0 0 0 0 0 0 0 2 29 5 8 1 5 5 4 3 0 0 0 0 29 100 100 100 100 100 100 100 100
5 0 0 0 2 0 0 0 0 0 0 0 0 0 0 0 0 0 13 2 0 0 5 9 14 8 15 14 57 24 0 0 0 2 5 95 100 100 100 100 100 100 100
0 0 32 52 5 5 5 2 2 0 0 5 5 5 0 0 0 22 8 0 0 0 0 1 30 22 5 26 38 43 54 0 6 22 36 100 100 100 100 100 100 100 100
3 4 1 4 4 2 8 96 28 7 50 63 5 5 2 0 28 58 38 54 0 0 2 27 36 58 74 73 24 20 9 7 24 85 73 99 100 100 100 100 100 100 100
5 5 5 5 5 5 5 22 67 61 98 51 10 20 10 1 0 80 94 30 9 18 5 18 90 100 100 97 46 34 56 85 100 100 100 100 100 100 100 100 100 100 100
5 12 13 16 19 5 7 20 50 57 53 6 39 44 34 23 0 0 39 90 74 32 6 35 91 100 100 100 97 98 71 73 100 100 99 100 100 100 100 100 100 100 100
13 25 33 34 55 30 57 76 17 28 34 0 18 26 0 0 0 36 0 48 3 13 1 11 100 98 100 97 93 79 98 99 98 100 100 100 100 100 100 100 100 100 100
6 9 29 30 7 33 54 100 100 92 100 100 73 62 58 79 100 92 91 99 94 99 26 96 99 100 100 100 100 100 100 100 100 100 100 100 100 100 100 100 100 100 100
0 0 0 0 0 23 1 17 98 97 100 100 100 100 100 99 100 100 100 100 100 78 44 100 96 89 93 100 100 100 100 100 100 99 100 100 100 100 100 100 100 100 100
0 0 0 0 0 0 0 0 1 3 6 89 100 100 100 100 100 100 100 89 65 70 50 95 84 41 47 53 70 82 58 34 40 99 95 97 97 94 100 82 91 100 100
0 0 0 0 0 0 0 0 0 0 26 71 97 100 100 100 100 100 100 15 28 35 34 31 16 24 23 17 21 21 12 21 37 74 100 92 99 91 91 100 100 100 100
100 20 0 0 0 0 52 34 14 20 99 100 100 100 100 87 35 42 14 12 27 32 26 27 24 26 29 28 100 44 66 97 95 80 79 100 65 38 60 100 100 100 100
100 100 60 16 24 12 100 100 100 100 100 100 91 55 99 42 24 13 25 18 3 3 0 0 0 5 19 29 76 92 99 95 67 29 34 26 4 0 1 90 100 100 100
55 100 97 84 87 93 64 99 100 100 98 24 73 14 100 0 5 1 0 0 0 0 9 17 5 5 63 78 24 12 21 22 17 24 25 6 5 8 6 2 5 78 100
84 100 100 100 100 100 100 100 100 47 48 12 0 0 0 0 0 0 30 0 0 0 0 0 0 0 0 0 0 4 5 5 12 64 5 5 73 100 62 26 5 5 10
73 100 100 100 100 100 100 97 24 30 21 12 16 32 58 69 65 23 5 32 0 1 0 0 0 0 0 0 4 5 5 27 25 5 87 100 100 100 100 65 70 100 52
100 90 90 80 100 100 99 100 100 100 94 94 100 100 100 100 100 100 98 42 41 78 47 7 87 54 4 0 13 10 10 15 49 5 28 98 100 100 100 99 69 88 79
100 100 100 100 85 100 97 68 76 98 100 100 100 100 100 83 76 58 31 14 27 65 5 44 22 92 94 50 98 100 99 99 47 77 94 98 100 100 100 100 88 100 76

GFSGL_prec_cloud_063.txt.gz
Cloud_Cover
0 0 0 0 0 0 0 0 0 0 0 0 0 0 0 0 0 0 0 0 0 0 0 0 0 0 1 2 0 0 1 2 5 5 13 41 51 55 65 97 64 100 99
0 0 0 0 0 0 0 0 0 0 0 0 0 0 0 0 0 0 0 0 0 0 0 4 0 0 0 0 1 0 0 0 0 5 5 89 99 99 90 35 53 11 29
0 0 0 0 0 0 0 0 0 0 0 0 0 0 0 0 0 0 0 0 0 0 0 0 0 4 0 0 4 3 0 0 0 0 0 0 40 99 100 100 100 97 40
0 0 0 0 0 0 0 0 0 0 0 0 0 0 0 0 0 0 0 0 0 0 0 0 0 0 0 0 0 0 0 2 0 0 0 0 0 1 34 45 100 98 100
0 0 0 0 0 0 0 0 0 0 0 0 0 0 0 0 0 0 0 0 0 0 0 0 0 0 0 0 0 0 0 2 0 0 0 0 3 13 9 13 56 100 96
0 0 0 0 0 0 0 0 0 0 0 0 0 0 0 0 0 0 0 0 0 0 0 0 0 0 0 0 0 0 0 0 0 0 0 0 0 3 99 100 85 7 99
0 0 0 0 0 0 0 0 35 4 0 0 0 0 0 0 0 0 0 0 0 0 0 0 5 0 0 5 10 7 5 5 5 5 4 1 0 35 14 51 100 100 100
0 0 0 0 0 0 0 0 0 35 36 0 0 0 0 0 0 0 0 0 0 0 0 0 0 0 0 2 3 5 50 71 80 1 0 0 0 1 72 100 100 100 100
0 0 0 0 1 2 0 2 0 0 20 40 1 0 0 0 0 0 8 0 0 0 0 1 0 0 4 0 0 1 4 13 11 2 4 8 18 16 70 100 100 100 100
0 4 1 5 6 5 2 4 0 0 0 0 28 14 0 0 1 4 17 0 0 6 0 1 3 1 0 11 28 39 47 55 64 59 72 50 100 100 100 100 100 100 100
2 26 25 70 5 5 5 4 0 0 0 0 0 0 1 0 0 19 28 0 0 16 19 17 10 0 9 21 28 25 17 41 100 98 100 100 100 100 99 79 99 100 100
3 0 38 93 11 5 4 1 0 0 0 0 0 0 0 5 54 79 40 75 1 3 10 9 6 0 20 30 42 34 100 100 91 97 100 100 100 100 69 62 43 91 100
73 2 0 5 24 39 83 5 0 2 0 5 54 58 5 49 6 93 99 64 86 36 5 5 5 51 60 99 100 100 100 100 100 100 100 98 66 66 99 100 100 100 100
5 5 3 0 2 63 93 16 1 19 92 1 29 99 47 87 72 27 89 98 97 78 56 24 75 100 100 100 100 100 100 100 100 100 100 93 78 100 100 97 100 100 100
5 5 5 5 6 6 78 54 11 11 21 18 44 14 10 28 16 42 35 56 72 66 56 92 100 100 100 100 100 100 100 100 100 100 100 100 82 90 98 100 100 100 100
4 5 9 4 4 7 89 100 100 99 100 100 100 56 24 79 98 100 100 100 100 100 100 100 100 100 100 100 100 100 100 95 100 84 91 46 99 100 100 78 100 100 100
7 1 5 59 5 28 48 86 100 100 100 100 100 100 100 99 100 100 100 100 100 100 100 100 100 100 100 100 100 100 39 92 74 99 63 65 100 99 34 100 78 63 100
5 89 71 20 10 24 50 50 47 72 89 100 100 100 100 100 100 100 100 100 100 100 100 100 100 100 100 98 65 59 42 97 99 86 100 100 100 85 100 100 100 100 100
10 27 25 29 18 33 42 87 97 100 100 100 100 100 100 100 100 100 100 100 100 100 61 54 60 54 36 34 39 36 30 79 80 20 65 100 100 100 99 100 100 100 62
19 94 88 37 28 17 65 92 86 52 96 100 100 100 100 100 100 100 43 59 100 100 100 80 38 28 29 30 37 66 93 100 94 39 68 100 100 100 100 98 100 66 55
45 23 39 40 22 18 48 99 68 55 72 100 94 100 100 100 69 53 95 100 100 100 100 100 61 100 100 100 100 92 87 97 100 55 65 100 100 100 100 100 100 19 0
89 92 37 23 14 35 50 87 68 45 39 28 59 92 100 100 100 100 100 100 100 100 100 97 65 99 100 100 100 94 44 100 100 79 45 90 100 96 85 88 55 16 22
60 74 29 92 57 66 60 70 99 83 51 41 91 100 100 100 100 100 100 100 100 100 92 10 28 57 40 31 15 15 20 26 18 23 32 34 44 36 27 51 56 30 100
43 100 98 46 48 61 78 71 71 87 100 100 100 99 100 100 100 100 44 28 22 30 44 23 17 5 5 11 17 18 10 8 16 21 10 29 31 58 1 5 5 54 96
31 96 90 100 100 50 98 100 100 100 94 100 92 96 78 100 96 44 59 63 62 96 98 99 99 67 29 5 0 0 10 1 22 73 35 26 19 5 8 30 38 49 88
100 100 94 100 100 100 100 100 100 100 100 100 95 47 69 100 38 97 100 100 100 100 100 69 44 7 5 2 0 0 0 4 8 84 8 5 5 16 39 61 100 100 100

GFSGL_prec_cloud_069.txt.gz
Cloud_Cover
0 0 0 0 0 0 0 0 0 0 0 0 0 0 0 0 0 0 0 0 0 0 0 0 0 0 0 0 0 0 0 0 0 0 0 0 0 0 3 9 74 20 100
0 0 0 0 0 0 0 0 0 0 0 0 0 0 0 0 0 0 0 0 0 0 0 0 0 0 0 0 0 0 0 0 0 5 0 0 0 5 54 5 5 34 67
0 0 0 0 0 0 0 0 0 0 0 0 0 0 0 0 0 0 0 0 0 0 0 0 0 0 0 0 0 0 0 0 1 0 0 0 2 5 4 6 8 100 100
0 0 0 0 0 0 0 0 0 0 0 0 0 0 0 0 0 0 0 0 0 0 0 0 0 0 0 0 0 0 0 0 0 0 0 10 2 0 0 0 4 40 100
0 0 0 0 0 0 0 0 0 0 0 0 0 0 0 0 0 0 0 0 0 0 0 0 0 0 0 0 0 0 0 0 0 0 0 0 0 0 0 5 29 100 100
0 0 0 0 0 0 0 0 0 0 0 0 0 0 0 0 0 0 0 0 0 0 0 0 0 0 5 1 2 5 0 0 0 0 0 0 0 0 5 61 91 100 85
0 0 0 0 0 0 0 0 0 0 0 0 0 0 0 0 0 0 0 0 0 0 0 0 0 0 3 0 14 27 26 6 1 0 0 0 0 23 7 42 89 100 100
0 0 0 0 0 0 0 0 0 0 0 0 0 0 0 0 0 0 0 0 0 0 0 0 0 0 0 0 0 5 5 5 5 7 1 0 7 30 92 100 100 100 100
0 0 0 0 0 0 0 0 0 0 0 0 0 0 0 0 0 0 4 0 0 0 0 0 0 0 0 1 0 4 8 7 5 4 0 0 2 4 41 84 100 100 100
0 0 0 0 0 0 0 0 0 0 0 0 0 0 0 0 2 0 33 0 0 0 0 0 0 1 0 0 5 5 42 42 27 43 86 41 47 8 100 96 99 100 100
0 0 0 0 0 0 0 0 0 4 2 0 0 0 0 0 0 24 19 0 0 0 0 0 0 0 4 27 36 5 5 25 51 56 43 95 97 74 100 87 98 97 100
0 0 0 0 0 0 0 0 0 2 5 0 1 2 1 8 87 78 41 72 4 0 0 0 0 11 57 66 56 5 5 78 80 100 100 100 100 100 97 100 95 100 97
0 0 0 0 0 0 0 0 0 14 0 0 0 0 0 0 4 88 99 65 59 16 12 8 26 84 100 75 98 29 68 64 94 100 100 74 51 78 100 100 100 85 78
0 0 0 0 0 0 0 0 0 0 0 1 5 5 5 5 1 0 16 65 79 53 27 51 47 84 92 42 58 68 90 75 100 82 85 78 100 98 100 100 100 100 100
10 23 40 35 13 1 12 0 3 16 17 34 5 5 5 5 4 1 14 5 5 7 14 84 100 100 100 100 100 100 100 100 100 100 100 100 94 100 100 88 98 98 85
10 50 80 97 100 100 44 8 92 86 100 100 100 55 5 49 90 100 100 100 100 100 75 100 100 100 100 100 100 100 100 100 100 100 100 99 100 100 83 66 100 100 100
9 66 95 100 98 100 86 68 10 36 89 100 100 100 100 97 100 100 100 100 100 100 100 100 100 100 100 100 100 100 100 98 100 100 100 98 90 100 100 99 100 85 100
21 91 100 100 100 100 96 83 88 79 30 5 80 89 99 100 100 100 100 100 100 100 100 100 100 100 100 100 100 100 100 100 100 100 100 100 100 93 100 100 100 100 99
2 2 62 59 52 25 1 0 4 27 8 0 27 60 94 100 100 100 100 89 92 92 70 100 100 100 100 100 100 100 100 100 100 96 82 99 98 69 100 98 99 100 100
3 100 61 13 5 5 1 0 0 4 70 95 7 5 55 100 75 95 100 100 73 92 85 100 100 100 100 100 100 100 100 100 89 63 18 22 42 58 90 82 100 93 78
2 5 5 5 5 5 5 0 0 0 4 97 94 24 59 38 21 29 61 90 69 71 65 74 100 57 85 98 99 100 87 60 25 31 21 70 67 62 74 100 89 100 100
21 29 8 5 5 5 0 0 0 0 0 9 68 100 100 100 99 87 96 52 52 44 3 9 10 41 52 100 99 100 100 80 4 29 70 37 51 72 100 100 100 100 99
94 79 34 5 5 7 2 0 0 0 0 0 26 40 89 100 100 100 94 72 64 54 0 2 24 99 98 99 100 99 100 36 23 48 100 98 72 93 100 100 100 100 69
100 100 100 34 5 5 3 0 0 40 5 0 8 43 68 100 100 100 100 98 77 65 62 58 17 5 8 7 17 16 75 30 18 32 75 79 100 100 100 100 100 100 95
100 100 100 100 54 5 6 15 62 64 43 82 98 98 100 100 100 100 100 100 100 29 40 58 85 97 91 66 54 58 46 100 27 74 84 97 93 74 81 100 100 100 100
100 100 100 100 100 100 100 100 100 100 100 100 100 100 100 100 100 100 100 94 100 93 100 92 83 53 52 54 39 58 1 83 64 100 90 97 88 93 86 78 100 97 98

GFSGL_prec_cloud_075.txt.gz
Cloud_Cover
0 0 0 0 0 0 0 0 0 0 0 0 0 0 0 0 0 0 0 7 1 0 0 61 12 0 0 3 1 1 0 0 0 0 0 0 0 1 5 75 98 100 100
0 0 0 0 0 0 0 0 0 0 0 0 0 0 0 0 0 0 0 0 0 0 0 0 0 0 0 0 0 0 0 0 0 0 0 0 1 0 0 1 19 77 100
0 0 0 0 0 0 0 0 0 0 0 0 0 0 0 0 0 0 0 0 0 0 0 0 0 0 0 0 0 0 0 0 0 0 0 0 0 0 0 1 10 5 5
0 0 0 0 0 0 0 0 0 0 0 0 0 0 0 0 0 0 0 0 0 0 0 0 0 0 0 0 0 0 0 0 0 0 0 0 0 1 0 0 5 0 2
0 0 0 0 0 0 0 0 0 0 0 0 0 0 0 0 0 0 0 0 0 0 0 0 0 0 0 0 0 0 0 0 0 0 5 3 0 0 0 0 0 0 0
0 0 0 0 0 0 0 0 0 0 0 0 0 0 0 0 0 0 0 0 0 0 0 0 0 0 0 0 0 0 0 0 0 0 1 5 5 5 5 0 0 0 22
0 0 0 0 0 0 0 0 0 0 0 0 0 0 0 0 0 0 0 0 0 0 0 0 0 0 0 0 0 2 0 0 0 0 5 5 5 5 5 5 8 25 24
0 0 0 0 0 0 0 0 0 0 0 0 0 0 0 0 0 0 0 0 0 0 0 0 0 0 0 0 0 0 0 0 1 0 5 5 5 5 5 7 8 27 32
0 0 0 0 0 0 0 0 0 0 0 0 0 0 0 0 0 0 0 0 0 0 0 0 0 0 0 0 0 0 0 0 0 0 5 5 5 5 18 73 96 91 48
0 0 0 0 0 0 0 0 0 0 0 0 0 0 0 0 0 0 4 0 0 0 0 0 0 0 0 0 0 0 0 1 0 0 11 20 49 100 96 56 93 71 83
5 1 0 0 0 0 0 0 0 0 0 0 0 0 0 0 0 0 0 0 0 0 0 0 1 2 0 0 1 0 0 18 0 0 2 11 66 69 70 84 38 46 94
5 0 0 0 0 0 0 0 0 0 0 0 0 0 0 0 8 28 0 18 0 0 0 1 5 5 5 3 20 0 0 47 5 0 0 5 88 60 82 91 13 53 31
5 0 4 0 0 0 0 0 0 0 0 0 0 0 0 0 0 15 6 1 11 11 0 3 12 3 0 65 50 1 73 7 5 9 17 77 77 51 97 74 100 100 79
77 5 0 0 0 0 0 0 0 0 0 0 0 0 0 0 0 0 1 3 59 41 5 5 5 13 92 68 22 35 5 7 8 29 42 67 61 95 72 100 100 100 100
44 51 15 28 4 12 0 0 0 0 4 0 0 0 0 0 0 0 0 0 0 0 0 0 0 0 0 1 5 10 49 99 97 59 53 69 93 89 100 100 100 100 96
94 100 88 38 46 23 0 0 86 27 99 100 94 54 40 65 74 56 98 100 100 21 5 0 0 0 0 0 14 68 34 79 100 84 33 47 42 93 100 100 100 100 100
100 100 100 70 62 18 2 0 0 36 100 100 100 100 100 97 100 100 100 100 100 82 3 5 4 2 5 26 89 65 89 78 51 54 100 100 100 100 100 100 100 100 99
100 100 100 72 100 37 34 5 3 1 0 0 73 42 97 100 100 100 100 100 87 30 1 4 4 5 64 97 7 13 28 25 61 35 98 87 100 100 100 100 100 100 97
100 100 100 100 100 100 100 100 91 14 6 2 2 55 75 100 100 100 100 100 44 9 5 0 0 0 21 49 15 4 5 25 32 92 91 97 100 100 100 100 99 100 43
95 100 100 100 100 100 98 39 5 2 28 11 22 94 73 100 100 100 100 100 19 5 5 5 3 0 0 7 1 14 27 48 69 99 100 94 100 100 100 100 100 75 35
100 100 100 100 100 100 100 100 100 100 100 100 98 63 100 100 100 100 99 54 16 92 38 5 5 0 6 97 66 36 1 70 100 88 100 100 100 100 100 100 100 68 38
100 100 100 100 100 100 100 100 100 100 100 100 100 100 100 100 100 100 81 64 100 70 5 16 10 10 100 87 81 100 38 60 64 82 100 98 100 100 100 100 100 100 58
100 100 100 100 100 100 100 100 100 100 100 100 98 62 99 75 98 98 79 74 40 52 38 63 84 92 94 85 50 24 6 47 45 60 79 100 100 100 100 100 100 97 59
100 100 100 100 100 100 100 54 91 100 34 78 92 10 23 55 96 25 36 26 97 30 55 100 100 100 100 100 84 57 59 38 50 17 46 48 52 81 46 95 100 10 34
100 100 100 100 99 100 93 98 99 97 61 80 100 47 26 16 6 22 10 31 50 63 70 100 100 80 100 100 100 56 60 18 28 68 38 87 96 87 22 94 62 62 37
100 100 100 100 100 100 100 100 100 100 100 100 100 100 100 100 100 100 100 100 100 98 97 100 100 100 100 98 98 74 98 100 95 100 9 33 76 55 28 8 27 79 100

GFSGL_prec_cloud_078.txt.gz
Cloud_Cover
0 0 0 0 0 0 0 3 2 4 0 0 0 0 0 0 0 0 0 17 0 0 0 0 0 0 0 0 0 0 0 0 0 0 0 0 0 0 5 23 94 69 97
0 0 0 0 0 0 0 0 0 0 0 0 0 0 0 0 0 0 0 0 0 0 0 0 0 0 0 0 0 0 0 0 0 0 0 0 0 0 1 3 68 4 0
0 0 0 0 0 0 0 0 0 0 0 0 0 0 0 0 0 0 0 0 0 0 0 0 0 0 0 0 0 0 0 0 0 0 0 2 5 5 5 4 0 0 0
0 0 0 0 0 0 0 0 0 0 0 0 0 0 0 0 0 0 0 0 0 0 0 0 0 0 0 0 0 0 0 0 0 0 0 1 3 5 5 5 4 2 0
0 0 0 0 0 0 0 0 0 0 0 0 0 0 0 0 0 0 0 0 0 0 0 0 0 0 0 0 0 0 0 0 0 0 0 5 5 5 5 5 5 0 0
0 0 0 0 0 0 0 0 0 0 0 0 0 0 0 0 0 0 0 0 0 0 0 0 0 0 0 0 0 0 0 0 0 0 0 2 5 5 5 5 5 5 5
0 0 0 0 0 0 0 0 0 0 0 0 0 0 0 0 0 0 0 0 0 0 0 0 0 0 0 0 0 0 0 0 0 0 0 0 4 5 5 19 5 5 5
0 0 0 0 0 0 0 0 0 0 0 0 0 0 0 0 0 0 0 0 0 0 0 0 0 0 0 0 0 0 0 0 0 0 1 0 0 5 5 10 28 14 43
0 0 0 0 0 0 0 0 0 0 0 0 0 0 0 0 0 0 0 0 0 0 0 0 0 0 0 0 0 0 0 0 0 0 0 5 0 0 4 5 69 99 80
5 2 1 0 0 0 0 0 0 0 0 0 0 0 0 0 0 0 0 0 0 0 0 0 0 0 0 0 0 0 0 0 0 0 0 1 5 0 0 1 29 100 100
5 5 5 0 0 0 0 0 0 0 0 0 0 0 0 0 0 0 0 0 0 0 0 0 0 0 0 0 0 0 2 6 0 0 0 0 4 14 1 0 14 86 100
5 5 5 2 0 0 0 0 0 0 0 0 0 0 0 0 0 28 0 0 0 0 0 0 0 0 4 1 3 5 5 40 0 0 0 0 2 11 5 0 6 28 93
5 5 5 2 0 0 0 0 1 0 0 0 0 0 0 0 0 8 7 0 0 0 0 1 17 10 3 65 13 4 63 4 0 0 2 5 5 5 5 39 2 26 97
85 10 5 5 1 0 0 0 2 0 0 0 2 0 0 0 0 0 1 2 52 24 0 1 0 0 74 40 33 30 0 0 3 16 5 37 60 39 12 17 78 44 90
100 98 51 54 5 0 0 0 0 0 0 0 0 0 0 0 0 0 0 0 0 0 0 0 0 0 0 0 0 0 0 0 1 5 33 98 94 50 5 58 92 100 100
100 91 28 6 5 2 5 27 90 0 10 17 0 0 19 78 98 82 63 0 0 15 1 0 0 4 3 5 1 0 0 4 29 98 100 86 59 43 32 35 97 100 100
100 90 64 77 100 83 41 17 77 55 100 100 100 99 2 96 100 100 100 100 94 70 0 0 3 5 8 5 11 8 2 5 5 7 6 0 83 100 99 100 100 100 100
100 100 96 100 100 100 100 5 61 1 0 0 74 30 97 100 100 100 100 86 8 28 0 5 57 20 91 25 38 31 51 74 18 0 0 0 5 34 88 100 100 100 100
100 98 94 100 100 100 100 14 34 91 0 0 0 48 86 100 100 100 100 0 0 0 2 9 97 100 86 7 5 38 8 99 90 9 2 0 23 97 100 99 100 100 100
100 100 100 99 100 100 100 100 62 100 98 99 88 42 4 24 5 42 39 5 5 51 100 84 23 17 71 6 8 15 5 56 100 100 98 5 41 100 81 96 100 100 100
100 100 100 100 100 100 100 100 100 90 100 100 100 100 25 61 43 29 79 96 66 91 78 99 33 41 100 100 12 83 100 100 100 72 5 5 10 100 96 79 83 100 98
100 100 100 100 97 100 100 100 100 100 100 100 97 100 100 100 67 52 85 100 88 95 66 100 42 6 41 100 86 91 100 100 100 52 5 12 28 100 100 88 100 100 100
100 100 100 93 84 92 100 100 100 100 100 100 100 98 99 87 64 94 100 87 100 100 97 80 45 84 82 100 100 100 100 100 100 28 5 5 14 99 100 82 97 99 100
98 81 71 96 100 99 92 100 100 99 100 100 100 100 100 100 100 100 100 100 100 99 100 100 93 100 52 100 93 99 100 100 92 80 100 95 61 82 28 19 56 97 100
100 100 98 100 99 88 99 100 100 100 100 100 100 100 100 100 100 98 100 73 64 92 20 98 88 96 100 100 100 100 100 100 64 67 81 95 100 97 100 100 100 43 50
100 100 100 100 100 100 100 100 100 100 100 100 100 100 100 100 100 100 100 100 100 100 100 100 100 100 100 100 100 100 100 100 86 100 98 87 100 86 85 100 93 92 92

GFSGL_prec_cloud_081.txt.gz
Cloud_Cover
0 0 0 0 0 0 0 0 0 0 0 0 0 0 0 0 0 0 0 0 0 0 0 0 0 0 0 0 0 0 0 0 0 0 0 0 0 0 2 4 5 23 1
0 0 0 0 0 0 0 0 0 0 0 0 0 0 0 0 0 0 0 0 0 0 0 0 0 0 0 0 0 0 0 0 0 0 0 0 4 5 5 5 5 5 3
0 0 0 0 0 0 0 0 0 0 0 0 0 0 0 0 0 0 0 0 0 0 0 0 0 0 0 0 0 0 0 0 0 0 0 0 4 5 5 5 5 5 5
0 0 0 0 0 0 0 0 0 0 0 0 0 0 0 0 0 0 0 0 0 0 0 0 0 0 0 0 0 0 0 0 0 0 0 0 0 5 15 65 52 18 79
0 0 0 0 0 0 0 0 0 0 0 0 0 0 0 0 0 0 0 0 0 0 0 0 0 0 0 0 0 0 0 0 0 0 0 0 0 0 4 11 58 92 57
0 0 0 0 0 0 0 0 0 0 0 0 0 0 0 0 0 0 0 0 0 0 0 0 0 0 0 0 0 0 0 0 0 0 0 0 0 0 0 0 5 5 12
1 0 0 0 0 0 0 0 0 0 0 0 0 0 0 0 0 0 0 0 0 0 0 0 0 0 0 0 0 0 0 1 5 1 0 0 0 0 0 0 0 2 8
100 6 10 0 0 0 0 0 0 0 0 0 0 0 0 0 0 0 0 0 0 0 0 0 0 0 0 0 0 0 0 5 5 16 5 4 4 0 0 5 2 0 2
100 100 18 0 0 0 0 0 0 0 0 0 0 0 0 0 0 0 0 0 0 0 0 0 0 0 0 0 0 0 0 5 5 9 5 16 5 5 0 8 24 5 5
100 100 84 0 0 0 0 0 0 0 0 0 0 0 0 0 0 0 0 0 0 0 0 0 0 0 0 0 0 0 0 4 2 5 12 5 25 0 0 0 0 5 49
100 100 100 87 0 0 0 0 0 0 0 0 0 0 0 0 0 0 0 0 0 0 0 0 0 0 0 0 0 0 0 5 5 5 5 5 2 5 5 5 5 5 16
100 100 100 15 8 0 0 0 0 0 0 0 0 5 0 0 3 31 6 6 0 0 0 0 0 0 0 0 0 0 0 2 5 5 5 5 0 0 0 4 9 52 40
93 100 18 0 5 5 0 0 0 0 0 0 10 1 0 0 1 58 42 9 0 0 0 0 0 0 0 6 0 0 0 7 0 0 0 0 0 4 5 21 61 25 58
92 100 98 6 5 5 4 0 0 1 0 12 20 1 0 0 0 0 4 26 46 18 0 0 0 0 56 17 45 11 3 5 1 0 0 2 7 8 51 100 95 100 100
81 44 92 96 9 74 5 0 0 0 0 0 5 4 7 11 0 0 0 0 0 0 0 0 0 0 0 0 2 54 31 33 11 3 6 24 86 93 62 74 97 100 100
7 74 100 100 17 11 13 7 53 20 2 0 0 0 0 32 0 0 0 0 1 49 5 0 0 0 0 0 0 5 71 99 87 36 21 5 12 44 9 64 94 77 100
21 22 100 100 100 99 13 5 0 34 100 98 58 2 16 42 100 100 100 0 63 74 0 0 0 0 0 0 0 5 39 69 75 99 88 13 15 20 45 56 57 45 100
62 54 64 47 100 81 8 6 84 1 5 99 98 79 100 100 100 100 100 82 82 50 0 3 5 0 0 3 0 3 88 100 100 100 100 95 61 100 89 85 93 62 57
80 96 89 68 100 100 100 100 100 55 3 23 98 100 100 100 100 100 100 81 51 53 35 100 13 0 0 5 5 80 80 88 100 97 97 100 100 100 97 48 47 98 90
16 82 100 90 98 100 100 100 100 87 37 22 19 5 99 100 100 100 100 100 100 100 100 100 16 81 96 44 5 5 12 46 76 100 97 100 100 100 55 26 32 75 100
0 0 44 100 100 100 100 70 100 63 68 100 100 100 100 100 100 100 100 100 98 78 60 36 5 4 5 4 5 18 23 4 2 42 100 100 100 100 100 99 92 80 98
99 8 90 100 100 100 100 100 89 68 100 100 100 100 100 100 100 100 100 100 100 100 100 84 100 98 95 63 72 100 20 7 41 37 100 100 57 49 64 56 93 100 100
100 11 98 58 100 100 99 100 100 100 100 100 100 100 100 100 100 100 100 100 100 100 83 43 100 100 100 100 79 37 43 58 100 100 66 83 59 98 29 27 28 99 87
100 83 61 100 100 100 100 100 100 99 100 100 100 100 100 100 100 100 100 100 100 100 100 42 66 84 100 100 100 38 93 100 100 100 100 100 100 99 100 47 31 21 2
100 100 100 100 100 100 100 100 100 100 100 100 100 100 100 100 100 100 100 100 100 100 97 90 92 98 100 100 100 100 71 100 100 100 100 100 100 16 100 69 2 30 19
100 100 100 100 100 100 100 100 100 100 100 100 100 100 100 100 100 100 100 100 100 100 100 98 87 99 100 100 100 46 57 64 100 99 79 91 100 100 100 100 95 96 100

GFSGL_prec_cloud_084.txt.gz
Cloud_Cover
0 0 0 0 0 0 0 0 0 0 0 0 0 0 0 0 0 0 0 0 0 0 0 0 0 0 0 0 0 0 0 0 0 0 0 0 0 0 0 3 5 5 10
0 0 0 0 0 0 0 0 0 0 0 0 0 0 0 0 0 0 0 0 0 0 0 0 0 0 0 0 0 0 0 0 0 0 0 0 0 1 5 5 5 1 3
0 0 0 0 0 0 0 0 0 0 0 0 0 0 0 0 0 0 0 0 0 0 0 0 0 0 0 0 0 0 0 0 0 1 0 0 0 0 2 5 4 5 5
2 0 0 0 0 0 0 0 0 0 0 0 0 4 0 0 0 0 0 0 0 0 0 0 0 0 0 0 0 0 0 0 0 0 1 1 1 1 0 0 0 0 1
46 74 0 0 0 0 0 0 0 0 0 0 0 0 0 0 0 0 0 0 0 0 0 0 0 0 0 0 0 0 0 0 0 5 6 7 4 4 5 4 0 2 0
100 5 1 0 0 0 0 0 0 0 0 0 0 0 0 0 0 0 0 0 0 0 0 0 0 0 0 0 0 0 0 0 0 15 4 5 5 5 10 5 5 0 5
100 100 100 76 58 0 0 0 0 0 0 0 0 0 0 0 0 0 0 0 0 0 0 0 0 0 0 0 0 0 0 0 0 0 0 5 5 5 5 3 1 1 5
100 100 100 100 100 100 40 1 0 0 0 0 0 0 0 0 0 0 0 0 0 0 0 0 0 0 0 0 0 0 0 3 0 0 1 32 5 19 26 2 5 5 12
100 100 100 100 100 100 100 40 0 0 0 0 0 0 0 0 0 0 0 0 0 0 0 0 0 0 0 0 0 0 0 2 0 2 5 7 28 24 42 11 6 68 18
100 100 100 100 100 100 30 100 0 0 0 0 0 0 0 0 0 0 14 0 0 0 0 0 0 0 0 0 0 0 0 0 0 0 0 5 22 67 86 5 0 30 27
100 96 100 100 100 100 100 68 4 0 0 0 0 0 0 0 0 0 16 0 0 0 0 0 0 0 4 6 0 0 0 0 0 0 0 5 4 10 14 22 4 2 48
87 100 100 100 100 100 99 62 4 0 0 0 0 0 0 0 0 28 21 34 0 0 0 0 0 0 0 8 11 0 0 8 1 3 12 4 6 5 0 1 6 8 43
100 100 100 100 100 100 100 100 6 2 0 0 1 0 0 0 0 60 52 35 11 0 0 0 0 0 0 18 0 0 20 18 0 4 4 5 0 5 6 3 43 94 100
100 100 100 100 100 100 100 100 83 98 6 4 21 14 6 5 0 0 25 65 77 42 0 0 0 2 4 17 28 6 1 7 7 2 5 6 75 97 66 21 86 100 100
100 100 100 100 100 100 100 100 66 90 28 0 0 0 1 0 0 0 0 0 1 26 0 24 29 18 1 4 13 10 14 18 18 0 0 5 5 76 100 92 84 98 100
100 100 95 100 100 100 100 100 100 96 29 2 0 0 0 0 0 0 1 97 97 97 79 58 56 41 33 13 9 2 5 14 0 5 31 26 40 71 41 100 100 100 88
36 53 77 98 100 100 100 100 100 100 100 100 98 57 31 0 99 82 64 34 100 97 32 22 20 26 9 5 58 49 5 48 100 50 10 18 97 76 98 100 100 100 95
4 11 36 52 51 87 100 100 100 90 5 5 87 78 99 100 100 100 100 90 68 99 57 84 65 80 99 73 99 85 99 100 65 34 33 15 24 32 63 100 100 100 100
5 16 9 48 25 42 93 100 93 64 22 3 63 96 100 100 100 100 100 73 100 100 100 100 100 100 92 100 100 100 96 60 100 22 21 24 15 28 53 72 100 100 100
3 4 52 29 36 29 100 100 88 79 33 34 28 13 100 100 100 100 100 100 100 100 100 100 100 100 100 100 100 100 100 83 94 100 98 61 48 28 33 31 100 100 100
3 9 100 97 100 100 60 100 100 100 100 100 100 98 100 96 98 88 100 100 100 100 100 100 89 82 99 8 98 48 100 82 63 93 100 89 38 44 30 19 54 97 65
47 2 47 99 100 100 96 63 100 100 100 100 100 100 100 100 100 100 100 100 100 100 100 100 100 53 80 58 97 100 100 72 90 25 100 100 96 62 82 33 26 27 100
5 4 11 35 100 99 77 87 90 100 100 100 100 100 100 98 94 98 100 100 100 100 100 100 94 82 100 100 100 85 100 95 94 86 85 100 100 96 80 32 26 35 43
80 76 86 44 85 100 100 100 89 100 100 100 100 100 98 89 93 99 100 100 100 100 100 100 100 100 100 100 100 17 34 98 100 98 100 100 100 97 96 99 52 28 99
100 100 100 100 100 100 100 100 100 100 100 100 99 100 100 100 100 100 100 100 100 100 100 100 100 100 100 100 100 50 100 95 91 70 94 100 100 100 89 61 90 70 54
100 100 100 100 100 100 100 100 100 100 100 100 100 100 100 100 100 100 100 100 100 100 100 100 100 100 100 100 99 100 100 96 100 100 100 100 100 100 100 100 52 85 100

GFSGL_prec_cloud_087.txt.gz
Cloud_Cover
0 0 0 0 0 0 0 0 0 0 0 0 0 0 0 0 0 0 0 0 0 0 0 0 0 0 0 0 0 0 0 5 5 4 3 0 0 0 0 0 5 5 5
0 0 0 0 0 0 0 0 0 0 0 0 0 0 0 0 0 0 0 0 0 0 0 0 0 0 0 0 0 0 0 0 0 5 5 5 5 5 5 5 5 5 5
0 0 0 0 0 0 0 0 0 0 0 0 0 0 0 0 0 0 0 0 0 0 0 0 0 0 0 0 0 0 0 0 0 7 6 5 5 5 27 38 11 8 5
2 0 0 0 0 0 0 0 0 0 1 0 0 0 0 0 0 0 0 0 0 0 0 0 0 0 0 0 0 0 0 0 0 10 11 5 5 5 46 69 5 5 5
100 72 0 0 0 0 0 0 0 0 0 0 0 0 0 0 0 0 0 0 0 0 0 0 0 0 0 0 0 0 0 0 0 6 10 10 5 5 7 5 29 5 5
74 100 87 100 0 0 0 0 0 0 0 0 0 0 0 0 0 0 0 0 0 0 0 0 0 0 0 0 0 0 0 0 0 9 6 9 0 0 5 5 8 59 5
100 100 100 100 88 27 10 0 0 0 0 0 0 0 0 0 0 0 0 0 0 0 0 0 0 0 0 0 0 3 0 1 7 0 0 0 3 4 5 5 5 5 8
100 100 100 100 100 100 100 100 99 91 9 0 0 0 0 0 0 0 0 0 0 0 0 0 0 0 0 0 0 0 0 0 0 0 0 0 0 0 1 5 4 1 21
100 100 100 100 100 100 100 94 100 100 100 84 0 0 0 0 0 0 2 0 0 0 0 0 0 0 0 0 0 0 0 0 0 0 0 0 0 0 0 1 22 82 25
100 100 100 100 100 100 100 100 100 100 100 100 45 0 0 0 0 0 4 0 0 0 0 0 0 0 0 0 0 0 0 0 0 0 0 1 15 0 6 6 8 34 39
100 100 100 100 100 90 98 100 100 100 100 100 100 2 0 0 0 3 12 0 0 0 0 0 0 0 0 0 17 0 0 0 0 0 0 2 7 7 5 27 21 18 48
100 100 100 100 100 100 100 100 100 100 100 100 100 71 0 0 6 3 10 48 0 0 0 0 0 0 0 6 45 0 0 6 1 2 1 0 1 5 5 21 24 28 68
99 100 100 100 100 100 100 100 100 100 100 100 100 95 0 1 1 66 48 35 29 2 0 0 0 13 0 24 2 3 25 29 8 21 4 0 3 5 5 13 52 67 32
100 100 100 100 100 100 100 100 100 100 100 100 100 100 71 49 0 0 33 88 85 68 3 9 4 6 5 17 26 6 5 4 4 5 6 20 8 4 6 12 13 71 81
100 100 100 100 100 100 100 100 100 100 100 100 100 100 96 99 12 6 0 2 9 34 28 46 83 67 23 13 10 6 13 17 32 65 63 98 50 7 8 12 31 79 90
100 100 100 100 100 100 96 100 100 100 100 100 100 100 99 20 55 80 93 100 100 100 97 96 100 100 100 74 48 41 98 59 42 72 100 100 98 6 6 38 48 75 96
100 88 100 100 100 100 100 100 100 100 100 100 100 100 100 100 100 100 100 100 100 100 97 100 100 100 99 100 100 95 100 100 100 100 100 100 98 60 100 35 63 99 100
100 98 96 100 100 100 100 100 100 100 100 100 100 100 100 100 100 100 100 97 100 100 100 100 95 67 94 100 100 100 100 100 99 99 100 100 100 100 99 70 82 78 100
100 100 74 82 100 100 100 100 100 100 100 100 100 100 100 100 100 100 100 100 42 95 100 100 64 67 100 100 99 70 61 98 96 97 96 65 100 100 100 100 100 98 99
61 100 91 100 100 100 100 100 100 100 100 100 100 100 100 100 100 100 100 100 45 100 100 100 100 100 100 100 100 100 100 93 92 100 68 53 52 100 93 100 100 79 100
86 100 100 100 100 100 100 100 100 100 100 100 100 100 100 100 100 100 100 100 100 100 100 100 100 100 100 100 100 100 100 81 56 100 100 92 100 100 63 81 35 30 100
97 100 90 100 100 100 100 100 100 100 100 100 100 100 100 100 100 100 100 100 100 100 100 100 100 100 100 100 100 99 100 100 100 100 99 100 100 100 73 87 76 99 100
97 98 100 100 100 100 100 100 100 100 100 100 100 100 100 100 100 100 100 100 100 100 100 100 100 100 100 100 100 100 100 100 100 99 100 100 100 100 100 100 59 55 60
100 100 100 100 100 100 100 100 100 100 100 100 100 100 100 100 100 100 100 100 100 100 100 100 100 100 100 100 100 100 100 100 100 100 98 100 100 100 100 89 100 99 99
100 100 100 100 100 100 100 100 100 100 100 100 100 100 100 100 100 100 100 100 100 100 100 100 100 100 100 100 100 100 100 100 100 100 99 100 95 94 17 9 21 100 94
100 100 100 100 100 100 100 100 100 100 100 100 100 100 100 100 100 100 100 100 100 100 100 100 100 95 100 100 100 100 100 100 100 100 100 100 100 94 95 22 99 100 100